GFSNGP_850_spd_246.txt.gz
Wind_Speed
6 6 3 6 9 7 8 9 5 6 8 6 6 6 10 12 14 18 21 23 28 33 39 41 42 42 41 38 39 36 33 31 29 31 31 27 20 19 15 14 13 11 6 6
4 4 6 8 9 7 9 9 11 14 16 1 10 10 8 10 15 20 26 28 32 33 38 40 42 40 42 42 37 34 33 33 29 27 29 35 35 31 21 16 13 11 9 10
3 3 4 5 6 6 3 2 4 4 3 5 4 9 7 8 13 16 21 27 32 32 27 31 37 37 38 39 39 36 33 34 31 28 28 29 32 35 31 27 21 16 12 11
2 3 2 4 2 3 5 4 2 1 3 6 9 15 14 10 18 18 21 27 32 36 39 35 33 35 36 36 38 38 38 38 37 38 35 30 29 31 32 30 29 23 19 16
2 2 7 2 3 5 3 4 3 3 6 8 10 13 14 15 16 18 22 26 31 32 34 35 34 34 36 38 39 41 40 38 38 39 41 40 36 32 29 30 35 35 28 24
1 2 5 4 4 5 6 3 1 5 6 8 12 4 5 20 20 19 24 28 29 30 32 31 32 34 35 36 38 38 39 41 41 42 42 42 43 42 39 36 36 36 36 33
2 3 7 5 8 8 4 4 3 3 5 10 4 14 22 22 18 22 25 26 25 26 27 30 32 35 37 39 39 37 38 41 41 42 43 43 45 43 43 44 43 40 40 42
4 5 9 12 5 6 2 5 10 8 10 18 23 22 19 19 22 25 23 23 25 27 29 31 32 35 37 40 40 40 42 42 44 44 43 45 45 46 44 44 45 45 44 46
8 6 5 20 8 7 7 9 10 10 17 20 18 15 18 21 23 23 26 28 26 25 27 28 31 33 36 39 39 41 43 44 43 41 38 38 41 45 43 42 43 45 42 45
1 5 12 17 15 17 15 12 10 13 18 12 13 16 19 20 21 26 28 26 25 26 27 28 31 33 34 39 38 38 40 43 43 44 42 39 36 36 39 40 36 37 36 39
6 8 17 21 17 9 9 14 14 14 19 13 14 15 17 22 24 24 23 24 23 23 26 30 33 36 36 40 41 42 42 43 44 44 43 44 43 41 40 40 36 38 39 37
7 11 13 12 14 14 18 19 19 22 17 13 14 16 19 21 22 21 21 21 23 25 27 30 34 37 37 41 46 47 45 46 45 46 47 48 47 48 43 42 38 38 38 37
14 17 19 19 16 17 18 19 17 13 13 14 14 16 17 18 21 23 22 21 23 24 27 29 33 38 39 43 48 48 45 46 45 45 44 45 46 47 48 43 39 35 32 33
23 24 23 24 20 15 13 12 10 10 12 14 17 17 17 19 21 21 20 20 22 24 25 28 33 39 41 45 49 49 47 46 43 45 46 45 43 40 39 39 39 36 33 29
27 25 25 25 24 18 17 16 14 14 13 16 16 16 18 20 19 18 18 19 22 23 24 28 32 37 41 43 47 47 46 45 43 43 42 40 37 36 35 34 33 36 35 29
10 9 11 16 9 11 14 14 16 15 16 14 13 14 17 20 18 17 16 18 24 24 25 27 31 34 40 40 45 45 43 41 40 40 40 39 36 33 29 30 31 32 30 29
18 16 15 17 15 12 13 12 15 15 14 13 12 13 14 16 17 16 17 19 22 21 22 25 28 32 35 36 40 41 40 40 38 38 37 34 34 31 24 25 27 28 29 23
31 28 22 18 15 14 13 15 16 15 13 11 10 10 11 15 17 18 18 20 21 22 23 25 26 29 31 32 35 39 39 37 37 38 36 34 31 28 26 22 18 12 7 4
21 20 18 19 17 15 12 15 14 12 12 10 11 10 11 13 18 19 18 19 21 23 25 26 26 27 29 30 29 33 36 37 36 36 36 34 33 30 28 24 21 19 17 15
15 17 17 15 14 15 14 12 12 12 11 11 12 12 12 12 16 20 18 17 19 21 23 25 26 26 27 27 28 27 30 35 36 37 37 36 35 33 31 28 27 25 24 22
18 18 17 16 15 13 12 12 11 10 10 13 14 14 14 14 17 20 21 18 16 18 19 21 23 25 27 26 25 26 26 29 32 33 35 36 36 36 35 34 33 31 30 29
21 20 18 15 14 14 13 12 11 11 12 14 15 16 15 14 16 19 19 19 16 17 18 19 20 22 24 24 23 23 23 25 27 26 29 31 32 33 33 32 32 31 30 29
22 19 17 16 16 14 13 13 13 13 13 15 16 15 15 14 16 19 18 14 14 14 16 16 17 18 19 21 21 23 23 23 24 24 24 25 26 27 28 29 29 29 28 27
18 17 16 14 15 15 16 12 11 13 14 14 15 15 15 15 15 17 17 15 14 13 14 14 15 15 16 17 18 19 20 22 23 22 23 23 23 23 23 23 24 24 24 25
16 15 14 14 15 15 13 11 13 15 17 15 13 15 16 15 15 17 16 14 13 12 12 12 13 13 14 14 15 16 17 17 19 20 21 21 22 23 23 24 24 23 21 20
14 14 12 12 13 13 13 13 15 15 17 18 18 17 18 18 18 17 16 13 12 11 11 11 11 12 13 13 14 14 14 14 14 15 16 17 18 19 20 20 21 21 22 21
12 12 13 14 16 17 17 17 18 18 18 19 19 20 18 20 20 19 15 12 10 9 9 9 9 10 10 11 12 13 14 15 16 16 16 16 16 16 16 17 18 19 19 19

GFSNGP_850_spd_249.txt.gz
Wind_Speed
6 7 5 7 10 10 12 10 8 2 7 11 12 11 8 6 9 13 16 17 19 25 27 31 30 33 38 41 40 43 39 35 32 32 31 34 32 30 27 21 20 17 12 7
2 0 4 10 12 13 15 14 17 17 18 4 4 4 6 8 10 15 17 19 20 22 25 29 33 32 33 36 38 38 40 37 35 34 32 32 34 33 31 27 22 17 19 14
1 0 5 8 10 16 8 10 10 8 5 1 3 6 8 12 12 16 17 19 22 24 24 28 32 32 36 37 37 38 34 33 35 33 32 32 35 37 31 30 29 26 20 19
1 1 3 1 1 8 10 6 9 4 3 2 5 8 12 11 11 17 17 20 24 26 27 28 27 32 36 36 38 40 37 37 37 38 38 35 33 33 36 33 30 28 31 30
2 3 6 5 7 6 7 7 8 5 4 4 4 9 12 11 12 16 16 22 28 30 28 28 28 31 33 36 37 36 38 40 37 38 38 35 34 36 35 34 33 34 37 35
3 3 5 1 6 9 7 7 15 9 5 4 3 6 9 13 21 15 20 25 28 28 30 29 30 31 31 31 35 38 41 41 43 44 43 39 37 41 41 37 33 35 36 40
4 3 8 7 13 10 4 1 9 7 5 8 6 10 16 20 13 18 23 24 25 28 29 28 28 30 31 32 32 38 42 44 44 42 41 39 37 37 37 41 37 38 39 39
7 5 10 14 9 7 4 10 5 8 6 7 13 18 17 12 16 21 23 26 28 27 25 23 24 28 30 32 35 39 42 44 45 44 41 38 37 40 39 35 34 37 40 43
11 6 2 27 3 12 10 6 3 8 10 9 14 12 11 15 19 21 24 26 25 24 25 24 23 25 30 33 35 38 43 46 47 46 44 42 42 40 39 34 34 37 37 37
5 8 15 19 19 14 9 9 13 11 11 11 14 12 13 16 18 21 22 21 22 21 21 23 22 25 29 32 33 37 44 45 45 43 42 42 40 39 37 36 36 37 38 36
5 7 3 13 24 22 16 7 9 11 10 13 14 13 14 16 19 20 21 22 20 17 19 20 21 25 29 32 33 40 45 45 43 40 42 41 37 37 38 38 36 38 39 38
7 11 6 5 11 10 9 11 12 13 14 13 10 11 13 16 17 19 21 20 17 17 17 21 22 25 27 32 35 42 44 43 43 42 43 43 42 43 38 36 33 32 32 33
8 13 13 9 9 12 11 9 10 11 11 9 9 10 13 15 16 19 18 16 15 16 19 21 23 25 28 34 37 41 42 40 39 39 40 40 41 43 45 40 33 32 33 30
23 20 11 18 12 7 6 10 8 6 6 7 9 11 12 12 15 17 17 15 15 18 20 20 23 25 29 32 35 40 41 39 38 38 38 39 39 38 39 40 37 34 28 27
20 22 24 19 15 12 14 13 10 10 10 10 10 9 10 12 14 15 16 14 16 19 18 21 24 25 28 30 33 38 40 39 38 38 37 35 34 35 35 34 31 30 32 31
14 24 25 23 20 17 14 15 14 13 12 11 10 8 9 10 12 12 13 14 18 18 18 21 23 24 27 28 32 35 38 37 36 36 35 33 32 32 31 32 32 28 26 27
19 14 19 17 19 18 15 13 11 11 11 11 9 8 7 8 10 9 10 13 15 16 18 20 23 23 25 27 29 30 35 36 36 36 34 32 32 31 30 31 30 29 28 26
26 27 20 14 17 21 17 13 13 12 11 10 10 9 7 7 8 10 12 13 15 15 16 19 20 22 23 25 26 27 29 31 32 35 35 35 35 33 32 33 33 32 30 27
31 35 32 28 24 19 18 15 14 12 11 11 11 10 9 7 8 10 13 12 14 16 16 17 19 20 22 22 24 24 25 27 28 29 31 33 35 35 36 37 36 34 33 32
20 22 23 24 23 23 20 16 15 14 12 11 11 13 11 9 9 10 13 14 14 15 16 16 17 18 20 22 23 22 22 24 24 25 26 29 31 32 33 34 34 35 36 35
17 19 22 23 22 20 17 16 15 13 11 11 11 11 11 11 11 11 13 16 14 13 14 14 15 17 18 21 22 22 21 21 21 22 24 25 26 28 30 31 31 31 31 30
19 20 23 22 21 19 18 17 14 12 12 10 10 11 12 12 11 12 12 15 14 14 14 14 14 15 16 18 19 20 20 20 20 21 22 23 24 25 26 27 27 28 27 28
23 21 23 22 21 19 17 16 14 12 10 9 10 11 12 10 11 11 12 14 14 14 13 13 13 13 14 15 16 17 17 18 19 19 20 21 22 23 24 25 25 25 26 26
22 24 23 21 19 17 17 16 14 12 10 10 10 10 10 11 11 12 13 14 15 13 12 12 12 12 13 14 14 15 15 15 15 16 17 17 18 20 21 23 25 25 24 23
21 22 20 19 18 16 14 13 13 13 12 11 11 12 11 11 13 14 14 14 15 13 11 11 11 11 11 12 12 12 12 13 14 14 15 16 17 18 19 20 21 22 22 23
19 17 16 15 11 9 10 11 13 13 12 13 14 14 13 13 15 16 16 15 14 12 10 8 8 8 8 9 9 10 11 11 13 14 15 16 17 17 18 19 19 19 19 20
14 12 11 11 12 10 9 10 14 14 13 14 15 14 16 17 17 17 17 16 13 11 9 6 5 5 5 6 7 8 10 11 12 14 15 16 17 18 19 20 21 21 20 20

GFSNGP_850_spd_252.txt.gz
Wind_Speed
3 3 3 5 12 14 15 12 7 2 6 4 5 7 5 5 7 10 12 14 16 20 24 26 27 29 27 27 28 27 27 26 30 32 28 33 36 32 35 32 33 30 29 21
2 4 9 11 15 17 17 17 17 17 17 14 5 4 4 6 8 11 14 15 18 20 23 26 27 26 26 27 27 27 28 27 27 28 28 28 29 35 33 32 34 32 32 32
2 3 4 9 19 19 16 10 15 14 10 7 7 7 6 6 9 10 15 17 19 20 23 24 23 23 24 25 26 26 26 27 26 25 25 28 34 28 30 32 35 28 35 34
3 4 5 3 2 9 18 12 15 11 7 8 6 5 7 8 8 11 14 16 17 21 22 21 22 23 25 25 25 25 26 27 27 28 29 28 27 31 34 28 28 32 34 39
3 7 6 8 7 7 11 12 14 14 10 9 6 6 13 2 7 12 11 13 17 19 20 22 21 22 24 26 26 27 29 30 31 32 33 32 32 29 27 30 31 28 28 36
4 4 5 5 5 9 4 9 16 16 12 11 7 7 2 7 12 10 10 13 16 18 20 19 20 21 23 25 27 29 30 32 33 34 34 34 33 34 30 28 29 31 34 30
8 5 6 6 14 14 6 1 14 15 12 11 9 8 11 12 9 7 11 14 17 18 17 18 19 20 22 24 25 28 29 32 34 34 34 31 31 31 32 32 31 31 30 33
8 6 9 19 15 8 5 11 14 12 11 10 9 10 11 7 6 9 12 14 15 15 17 18 18 19 21 23 26 28 30 32 34 35 35 34 33 31 29 30 33 31 30 30
11 6 6 27 6 20 10 12 12 11 10 10 9 10 7 6 7 9 11 13 13 16 18 18 17 17 20 23 26 29 31 34 35 36 35 35 34 34 33 30 29 34 35 36
7 13 12 19 18 14 14 11 10 9 10 12 11 8 8 7 7 10 11 12 14 16 17 17 16 17 19 22 25 28 30 35 36 38 39 35 35 36 36 36 36 35 34 37
8 6 4 15 24 20 17 12 10 10 9 10 10 10 8 6 6 9 10 12 13 13 15 15 16 18 19 21 24 28 30 33 37 38 38 38 34 35 35 35 34 38 38 39
6 11 12 5 18 22 20 17 13 13 12 12 11 9 7 5 7 7 9 11 11 12 13 15 16 18 19 22 25 27 31 36 40 39 39 39 41 42 35 36 33 31 28 27
6 8 10 7 8 14 17 14 13 13 14 14 11 9 6 5 7 10 9 9 9 10 12 15 16 18 20 23 26 26 29 33 39 37 37 39 39 39 41 42 35 34 29 25
16 10 9 13 11 15 14 13 13 10 11 12 12 9 7 6 7 7 7 7 8 9 11 13 16 18 20 23 25 26 29 32 34 36 35 35 35 35 35 36 40 41 37 35
20 20 13 11 15 15 15 13 14 13 13 13 11 9 7 6 6 7 6 6 7 10 10 15 17 18 20 22 23 26 28 29 31 33 32 32 33 33 32 32 33 33 35 37
21 19 18 19 17 16 18 17 17 15 15 14 12 10 8 7 6 6 6 7 9 10 12 14 16 18 19 20 22 23 25 27 28 29 30 31 31 32 32 32 33 34 33 34
19 19 20 22 22 21 21 19 19 16 16 16 13 10 9 8 6 5 6 9 10 11 12 13 15 16 18 20 21 22 23 25 26 26 26 26 28 29 29 31 33 32 33 33
26 23 20 24 26 23 22 20 18 18 17 15 13 13 11 9 7 6 7 9 10 10 10 11 13 14 16 18 20 20 21 21 21 22 24 25 25 25 28 30 31 32 33 34
28 27 22 24 21 19 25 22 19 19 18 16 14 12 10 10 8 7 8 10 11 11 10 11 12 13 14 16 19 20 20 20 19 18 20 22 24 24 25 27 28 29 30 31
25 26 27 27 23 23 21 23 22 20 19 16 13 13 12 10 10 9 9 9 11 12 11 11 12 13 13 15 16 18 19 19 19 19 19 20 20 22 23 24 25 25 27 27
21 22 25 28 29 31 28 24 23 22 20 16 14 12 10 11 12 11 11 11 12 12 11 11 11 12 13 14 15 16 17 18 18 18 19 20 20 21 22 22 23 25 25 25
18 21 24 26 27 27 27 25 22 20 19 16 14 13 12 12 13 13 13 12 13 12 12 12 10 11 12 13 13 14 15 16 16 16 17 18 19 20 22 23 23 24 24 24
21 21 23 25 26 25 24 23 22 20 18 15 13 11 11 11 12 13 13 12 12 12 12 11 11 11 11 11 12 13 13 14 14 14 14 16 16 17 19 20 21 22 24 24
21 23 25 26 25 24 24 22 21 19 16 14 12 11 11 11 12 13 15 14 13 12 12 11 10 10 10 9 10 10 11 11 12 12 13 14 15 16 17 18 19 20 21 22
24 25 25 27 26 22 19 20 19 17 17 15 14 12 11 12 13 12 13 14 14 14 13 11 10 9 7 7 7 8 8 9 10 11 12 13 15 16 17 18 20 20 20 20
23 26 27 25 20 17 16 17 16 16 16 15 14 13 13 14 16 16 16 15 15 14 13 11 9 8 6 5 5 5 6 7 8 9 10 12 14 15 16 17 19 20 20 21
22 24 22 19 18 16 15 15 14 12 13 14 12 13 14 16 18 19 18 17 17 15 12 11 10 8 6 4 4 4 4 5 7 8 9 11 12 13 15 16 17 19 19 20

GFSNGP_850_spd_258.txt.gz
Wind_Speed
1 4 8 14 16 15 14 8 6 6 15 18 16 12 10 6 8 7 5 2 3 6 9 11 12 13 15 16 18 20 21 23 24 28 29 32 35 37 37 38 41 41 40 39
5 4 2 8 11 16 16 14 11 7 5 8 11 10 8 10 10 6 4 1 3 6 8 10 11 13 14 17 19 20 21 22 24 27 29 32 34 37 39 39 38 39 36 39
5 8 3 4 17 17 15 16 15 12 10 9 5 9 12 12 9 6 3 1 3 5 7 9 11 13 15 17 18 19 20 21 24 27 29 32 35 38 40 44 42 40 42 38
5 9 4 5 6 21 17 15 15 11 9 11 11 13 12 8 7 6 4 0 2 4 6 9 10 12 15 16 16 18 19 22 24 28 30 32 35 35 37 41 47 46 42 39
4 9 2 6 7 6 14 15 14 15 12 10 11 8 7 12 8 9 3 2 1 2 6 8 9 12 14 15 16 17 20 23 26 28 31 34 35 36 41 41 41 41 41 40
4 4 7 2 12 9 10 9 16 18 15 15 16 7 7 13 11 6 5 3 1 3 5 6 10 11 13 14 16 18 21 24 26 28 31 33 35 43 38 38 36 36 37 38
6 5 5 13 16 14 8 3 20 22 18 19 11 9 19 12 7 7 6 3 0 2 4 7 9 11 12 13 15 18 20 22 24 27 30 31 39 37 36 36 36 37 41 41
9 6 8 23 18 11 8 10 16 18 17 16 17 19 15 9 7 8 5 1 0 2 4 6 8 9 11 12 15 17 20 22 24 27 27 36 35 36 36 37 39 39 39 42
11 7 4 32 11 15 16 19 17 16 15 16 14 11 8 7 10 8 5 3 1 1 4 5 7 8 10 12 14 17 18 20 23 26 31 33 35 37 38 37 38 38 40 41
10 10 15 26 15 19 18 19 17 16 17 16 16 13 11 11 11 9 5 3 1 1 3 5 6 7 8 11 13 15 17 19 21 28 31 30 34 36 36 38 39 39 39 43
10 13 19 25 19 24 19 19 18 16 16 16 14 14 13 12 12 10 6 5 2 0 2 4 6 7 9 10 14 16 16 18 21 28 30 29 31 33 34 34 34 34 36 40
6 16 13 24 27 23 24 20 19 18 16 13 13 14 14 11 12 10 8 6 4 2 0 3 5 6 8 12 15 16 16 18 23 26 28 28 29 32 30 31 31 31 33 34
7 21 23 22 25 27 24 22 20 18 16 15 15 14 14 13 13 12 9 7 5 3 1 2 4 6 9 14 15 14 15 17 22 24 25 27 28 30 34 34 31 31 34 35
15 13 24 20 21 26 23 24 22 19 17 16 17 16 14 14 15 11 10 8 6 4 1 2 4 6 11 13 15 14 15 15 20 21 24 25 26 27 29 33 35 35 34 35
18 19 17 19 18 19 20 21 21 21 19 18 18 18 19 17 13 13 11 9 6 4 3 5 5 6 10 12 14 14 13 18 19 19 23 25 23 25 27 29 31 33 34 35
20 22 18 22 21 22 21 21 22 22 21 19 20 21 20 18 16 15 12 10 8 6 6 6 6 8 10 11 13 14 16 18 17 17 21 23 23 23 24 26 28 30 31 33
23 23 24 22 27 26 27 25 24 23 22 23 23 23 21 19 18 16 13 11 8 7 6 6 7 8 10 11 12 15 17 17 16 15 19 20 20 19 21 23 24 26 27 30
24 27 30 31 26 27 26 26 25 25 25 26 25 24 23 23 22 19 17 13 8 7 6 8 8 9 10 11 12 14 15 16 16 14 18 19 19 19 20 21 22 24 26 27
27 26 30 29 28 26 28 28 29 29 26 29 28 28 27 26 23 21 16 11 9 8 7 8 8 10 11 11 11 14 15 16 16 16 16 17 17 18 18 21 21 22 24 25
28 29 27 30 29 29 30 30 31 30 29 31 31 31 29 25 21 18 15 12 10 9 8 8 9 10 11 11 11 14 15 16 15 15 15 16 16 17 17 19 19 20 22 23
30 29 28 29 30 29 29 31 33 33 34 33 32 30 27 24 21 18 17 13 10 10 10 9 9 9 10 10 12 14 15 15 14 14 14 15 15 16 16 18 19 20 21 22
32 32 30 29 29 29 29 31 33 35 36 33 29 28 26 24 22 19 15 12 11 9 10 10 9 8 9 10 13 14 14 13 13 13 13 13 13 14 15 16 17 18 20 22
29 30 31 30 29 30 32 31 35 35 32 32 31 29 26 24 20 18 15 11 12 10 9 11 9 9 11 12 13 13 12 11 11 11 11 11 11 12 14 15 16 17 18 20
27 26 27 31 29 31 34 33 31 31 29 28 28 27 26 24 20 15 13 10 10 9 11 11 10 11 12 13 13 12 11 10 9 9 9 10 10 11 13 14 15 16 17 18
25 24 24 28 32 32 32 28 26 27 29 29 28 27 24 22 17 14 13 10 9 10 12 11 11 13 14 13 13 12 11 10 9 9 9 9 9 10 12 13 14 15 16 17
24 25 26 29 32 31 29 31 30 29 32 31 29 28 26 22 18 17 15 12 11 13 12 11 12 13 14 14 13 12 12 10 9 8 8 8 8 9 10 11 12 13 15 16
23 24 25 26 27 29 32 34 31 32 32 31 29 27 24 22 20 19 16 15 14 14 16 15 14 14 16 15 14 13 12 11 9 9 8 8 8 8 9 9 10 12 13 15

GFSNGP_850_spd_264.txt.gz
Wind_Speed
6 4 7 7 9 9 9 5 7 8 17 21 21 22 32 38 40 38 35 33 29 24 18 11 5 2 5 6 10 9 11 12 17 17 18 21 24 27 31 32 32 32 32 32
5 3 3 6 16 15 8 6 4 15 9 18 29 30 29 33 36 35 37 34 29 23 17 11 6 3 5 7 9 8 10 13 16 16 19 22 25 29 30 31 31 31 30 31
5 2 4 5 15 12 5 8 10 12 7 18 17 26 31 34 38 35 39 35 31 23 17 11 6 5 5 7 5 7 9 14 13 16 19 22 26 28 30 31 32 31 31 32
4 3 3 8 7 14 21 14 6 7 12 27 28 30 37 42 40 38 41 36 29 23 17 10 7 6 5 4 4 6 10 12 13 16 19 22 25 27 28 30 31 33 33 31
6 4 5 6 5 11 12 11 10 12 15 28 30 30 22 39 41 41 41 34 27 20 13 9 8 6 5 5 5 7 10 10 12 15 19 22 24 26 27 29 31 33 33 33
3 7 11 7 6 16 8 12 11 19 20 25 32 15 11 35 40 41 36 31 26 18 12 11 9 6 4 5 6 7 7 9 10 14 19 21 22 24 26 27 30 30 32 34
3 4 7 8 5 24 14 9 25 33 35 37 21 18 33 40 41 39 34 29 22 15 13 12 9 6 5 6 6 5 6 6 9 13 17 19 21 23 24 26 27 30 31 34
2 2 9 12 15 17 7 7 34 39 44 42 34 32 45 45 42 38 33 27 20 18 16 14 9 7 6 6 4 4 5 5 8 12 16 18 20 22 24 26 27 29 31 34
12 10 5 12 9 23 19 16 31 37 46 50 43 52 51 46 41 36 30 25 21 18 19 14 10 7 6 5 2 3 4 4 7 11 14 16 18 21 23 25 27 29 30 34
5 7 7 13 17 18 18 23 38 46 53 53 50 53 50 45 40 35 31 29 27 24 20 15 11 8 6 4 3 3 3 4 7 10 12 14 16 19 21 23 25 27 28 30
4 5 8 15 21 20 18 23 32 44 52 52 53 51 49 44 39 37 35 33 29 24 19 16 12 8 6 4 3 3 2 5 7 11 13 12 15 17 19 19 19 21 23 26
10 12 14 17 29 29 31 32 40 46 44 48 49 50 45 42 40 40 38 34 29 23 18 16 13 9 7 6 4 3 2 3 8 11 12 11 14 14 15 18 20 20 19 21
7 30 34 25 36 36 38 39 42 46 47 48 45 45 41 44 44 40 37 34 28 22 19 16 14 11 9 7 5 3 1 4 8 10 12 12 15 16 17 15 17 19 21 22
28 23 18 36 37 42 42 40 40 41 42 42 42 40 39 43 42 40 39 32 25 22 19 17 15 13 11 8 6 3 2 5 6 9 10 12 14 14 15 18 19 20 20 22
35 31 35 35 40 42 41 40 38 40 41 40 39 39 40 41 44 41 36 30 24 23 21 19 17 14 12 9 6 4 3 4 6 8 10 12 12 13 14 15 18 20 22 22
36 36 35 42 44 46 46 43 41 40 39 37 36 36 38 38 42 40 34 30 28 27 22 19 16 14 12 9 6 4 4 5 7 8 10 10 11 12 14 16 18 20 22 24
36 29 36 39 45 48 50 48 45 45 42 40 37 37 40 39 41 38 33 28 23 22 21 19 16 15 12 9 7 6 5 5 8 9 10 10 11 12 13 15 16 18 19 20
45 40 41 44 51 51 48 48 46 46 46 42 40 41 40 41 43 39 34 29 25 23 21 19 17 15 12 10 8 6 5 6 7 9 10 10 11 12 12 13 14 15 16 17
39 40 38 40 48 49 48 49 48 46 46 44 45 44 42 42 41 38 34 32 29 27 25 21 18 15 12 10 9 7 5 5 6 8 9 10 10 9 9 10 11 13 15 16
26 35 36 38 43 43 41 41 43 46 46 45 45 45 45 44 42 38 34 31 27 24 21 21 18 15 13 11 9 7 6 5 5 6 7 7 7 7 7 9 10 12 13 15
25 30 36 39 39 37 36 37 36 42 46 46 44 42 44 45 41 36 34 30 27 24 21 19 17 16 14 11 10 8 6 4 4 6 6 6 6 6 7 8 9 11 12 13
37 35 36 39 38 38 38 38 39 42 44 42 39 40 44 43 40 36 30 29 30 26 23 20 19 17 14 12 10 8 6 5 5 5 5 5 6 6 6 7 8 10 11 12
49 48 44 42 43 42 39 43 45 44 43 41 39 43 45 43 41 40 36 31 27 25 23 20 19 17 15 12 10 8 7 6 6 5 5 6 6 6 7 7 8 9 10 11
39 37 39 39 36 35 42 45 45 44 42 41 39 41 44 44 41 35 32 31 30 27 22 20 20 18 15 13 10 8 7 7 7 7 7 7 7 8 8 8 9 9 10 11
38 40 39 37 36 37 42 43 44 44 43 43 43 42 39 36 33 35 31 30 27 24 22 20 19 18 15 12 10 9 8 8 9 9 9 8 8 9 9 9 9 9 10 11
31 36 39 40 38 36 39 47 47 44 43 43 43 42 40 35 32 31 32 29 28 25 22 21 20 18 15 12 11 10 9 10 11 11 11 10 10 10 10 10 9 10 10 11
27 30 33 37 36 35 37 44 44 42 39 39 41 41 39 37 33 32 32 30 26 23 21 20 19 17 15 14 13 12 12 12 12 13 12 11 11 11 11 10 10 10 10 11

GFSNGP_850_spd_270.txt.gz
Wind_Speed
5 9 6 7 8 10 9 7 8 6 9 13 18 21 34 35 37 38 41 45 45 41 36 31 26 21 15 9 7 5 2 1 4 5 7 9 11 14 17 19 21 22 24 25
7 8 9 6 9 12 16 7 9 3 6 8 23 17 25 34 40 42 42 47 47 42 39 35 29 23 17 12 10 6 3 1 2 4 5 7 10 13 15 18 20 22 23 25
9 4 6 2 14 13 5 8 8 12 7 9 10 17 31 36 44 45 47 50 50 46 41 36 29 24 20 14 10 8 3 1 0 2 3 6 10 12 15 18 19 21 22 24
2 4 3 12 11 15 16 14 18 7 10 15 24 39 44 45 46 47 49 53 50 46 42 36 30 25 18 13 11 7 5 3 3 1 3 6 9 12 14 17 19 20 21 23
4 7 5 2 6 9 8 19 9 12 8 17 29 23 16 34 45 55 57 54 50 47 43 37 32 26 19 15 13 10 8 6 5 1 2 6 8 11 14 16 17 19 20 22
1 7 11 10 5 7 6 16 11 16 16 13 22 13 7 43 50 48 53 52 51 47 42 38 33 27 21 17 15 13 10 8 6 2 2 5 8 10 13 15 16 18 20 21
14 5 9 5 10 19 8 11 15 32 28 29 18 18 41 47 45 52 56 53 50 47 45 41 35 28 21 19 18 14 11 9 6 2 2 5 7 10 11 13 14 16 18 21
4 8 17 9 7 16 15 12 12 21 31 37 40 38 37 50 53 56 55 53 50 49 46 41 34 27 23 21 18 15 12 10 7 3 1 4 6 8 10 12 14 16 18 20
11 10 3 21 18 27 35 16 20 16 26 42 35 39 41 51 56 58 57 54 52 51 47 40 33 26 22 22 19 16 14 11 7 3 1 3 5 7 9 12 14 17 19 21
5 6 7 12 25 19 30 25 13 14 25 37 40 40 45 52 56 57 56 55 55 52 47 40 31 25 20 20 19 16 14 12 7 4 1 2 5 7 9 11 14 17 19 22
13 22 8 19 26 25 21 29 22 22 24 36 44 43 50 51 55 58 57 55 56 52 45 37 32 27 23 21 20 18 15 12 9 5 2 1 4 6 9 12 15 17 19 21
9 22 20 28 34 34 33 29 24 25 27 38 45 49 50 53 57 58 56 57 55 49 42 37 33 29 25 23 20 18 16 13 10 6 3 1 3 6 9 11 14 15 17 18
29 41 40 40 47 43 33 40 36 24 31 36 40 50 53 54 55 56 57 58 54 48 40 36 34 30 26 24 21 18 16 14 11 7 4 1 3 4 5 8 10 12 14 16
39 37 39 40 30 38 43 36 27 26 32 35 41 48 53 54 55 57 59 57 51 44 39 36 33 30 27 24 22 20 17 14 10 7 4 1 3 5 7 8 8 9 11 13
36 39 45 51 54 49 42 34 28 30 31 34 41 49 53 52 57 58 58 54 47 42 39 36 33 31 28 25 23 21 18 14 11 7 4 1 2 4 5 6 7 9 9 10
43 43 45 43 45 40 39 34 34 36 36 39 45 50 54 54 56 57 56 52 49 45 41 37 33 31 29 26 24 21 18 14 10 7 4 2 2 3 4 4 6 7 10 12
40 40 37 40 42 38 43 42 40 41 40 42 47 50 51 51 55 56 53 48 44 40 38 35 33 31 29 27 24 21 18 15 11 8 5 3 2 2 2 3 5 7 9 11
46 48 39 36 36 38 42 42 40 42 44 45 48 51 53 54 56 55 52 48 43 40 37 33 32 31 29 27 25 22 18 15 11 9 6 4 3 3 2 2 3 6 8 9
46 48 43 38 39 43 47 43 44 44 44 47 49 53 53 53 55 54 51 48 46 45 41 35 33 31 30 28 25 22 19 16 13 10 8 6 5 3 2 1 2 4 6 8
49 45 46 42 35 37 47 44 43 44 45 46 48 51 53 53 51 50 50 49 45 43 39 36 35 33 30 28 25 22 19 16 13 11 9 8 6 4 3 2 2 4 5 7
46 44 37 32 34 37 49 44 46 47 47 47 50 52 52 49 47 48 50 49 47 43 38 36 37 35 31 29 26 23 20 17 15 13 11 9 7 5 4 3 3 3 4 6
39 32 28 30 36 41 46 43 47 49 49 50 51 49 48 47 46 46 44 47 47 44 39 38 37 35 32 29 26 23 21 18 16 14 13 11 8 6 5 4 4 4 5 6
34 22 24 29 35 38 42 43 49 50 51 53 51 48 45 43 45 50 50 46 45 43 40 37 36 33 30 28 26 23 21 19 16 14 13 12 9 7 6 6 5 6 6 7
19 22 20 25 30 36 40 43 47 49 51 49 46 43 45 47 48 45 43 44 46 44 39 35 35 33 31 28 26 23 21 19 17 15 14 13 11 9 8 7 7 7 7 8
15 15 15 13 23 35 39 41 43 44 47 50 51 49 47 43 39 45 44 43 43 42 37 36 35 33 31 28 26 23 21 19 17 15 14 12 11 10 10 9 9 9 9 9
13 18 21 21 25 30 33 37 39 40 42 44 45 46 46 45 43 41 44 39 43 42 37 37 36 33 30 27 25 23 20 19 18 15 13 12 12 12 11 11 11 10 10 10
14 19 19 21 21 23 28 31 34 38 39 39 40 43 44 44 42 37 41 39 41 40 37 37 35 32 28 27 25 22 20 19 16 14 13 13 12 13 13 13 13 12 12 12

GFSNGP_850_spd_276.txt.gz
Wind_Speed
17 21 21 16 20 23 23 28 23 26 27 20 14 15 22 29 33 38 43 45 45 44 42 38 34 30 27 25 24 22 19 17 16 16 14 13 12 11 10 10 9 10 10 10
18 19 21 22 23 20 26 28 26 29 26 15 18 11 21 29 36 40 45 47 46 44 42 40 37 34 30 28 25 23 20 19 18 18 16 14 12 11 10 9 9 9 8 8
12 14 14 21 26 26 25 23 25 24 24 21 11 15 23 28 33 40 47 50 50 49 46 42 38 36 34 31 28 25 22 21 20 19 17 15 13 11 10 8 8 7 7 7
9 12 16 20 18 25 26 25 24 21 14 20 18 23 24 31 43 43 44 48 48 48 46 42 39 36 33 32 30 26 24 22 21 20 18 16 14 11 10 8 7 6 6 6
8 13 19 18 20 19 24 27 23 23 19 20 24 26 23 30 37 45 50 53 54 51 48 42 41 39 36 33 30 27 25 24 22 21 19 17 14 12 10 8 7 5 5 6
11 14 17 16 22 7 9 17 18 22 19 21 21 13 15 28 30 31 36 42 49 52 49 46 44 42 38 35 32 28 26 25 23 22 19 17 15 13 11 9 7 5 5 6
19 15 15 11 11 8 14 8 13 22 25 26 18 22 25 24 35 38 43 45 47 51 55 55 51 48 42 38 34 29 27 26 25 22 20 18 16 13 11 9 7 5 4 5
17 21 24 11 12 13 13 16 29 24 10 17 19 24 25 23 31 32 38 44 50 52 53 57 57 53 44 40 34 31 29 28 26 24 21 19 16 14 11 9 7 5 4 4
6 10 13 13 14 8 18 21 27 23 24 21 18 19 16 16 24 32 38 45 53 52 49 48 57 55 50 40 36 34 31 29 27 25 22 19 16 14 12 9 7 5 4 4
12 11 10 30 30 16 16 27 27 21 23 20 20 17 18 16 21 34 39 45 48 48 49 50 60 55 49 42 39 36 33 30 28 26 24 20 16 14 11 10 8 6 5 4
23 30 37 34 18 9 26 32 32 27 22 24 25 22 19 19 22 33 41 44 49 50 51 55 62 58 50 45 40 37 33 30 29 26 23 21 16 14 13 12 10 8 6 5
23 28 29 37 44 45 44 39 37 32 29 29 26 26 21 18 22 31 41 43 46 48 49 51 56 54 48 46 42 38 35 32 29 28 23 21 19 18 14 12 9 8 6 5
41 42 42 50 51 56 47 42 37 29 31 35 33 27 22 18 20 29 38 46 50 50 48 53 57 57 51 49 44 39 36 33 32 28 25 23 21 18 17 14 12 9 7 5
51 45 47 47 49 48 41 36 35 40 36 30 31 30 24 19 20 28 34 37 40 44 49 56 58 60 55 51 44 38 33 35 33 29 26 24 20 18 16 14 12 10 8 6
53 48 55 55 53 53 48 42 40 40 35 31 28 27 23 20 23 29 32 35 39 43 51 54 57 60 57 50 45 40 36 36 31 29 27 24 22 19 17 15 13 12 10 8
54 53 58 55 55 53 48 46 40 37 32 31 28 26 23 21 21 24 29 36 44 47 49 56 61 63 57 51 46 40 37 37 35 31 30 27 23 21 19 17 16 14 11 9
50 48 50 49 51 51 51 47 43 39 33 32 30 26 22 19 20 24 30 37 46 49 55 58 60 62 56 51 47 46 42 41 36 32 31 28 25 23 21 19 17 15 13 11
60 58 52 52 48 45 46 47 45 41 38 33 30 26 22 22 26 29 36 40 41 42 49 52 62 59 54 51 49 47 45 43 38 34 32 29 26 23 21 20 18 17 14 12
62 61 58 56 51 49 46 45 44 40 35 33 31 28 27 30 33 36 40 44 46 47 47 52 61 58 55 51 51 48 45 44 40 35 32 29 27 24 22 20 19 17 15 12
54 55 55 55 52 49 49 48 41 38 38 35 33 30 30 34 36 38 44 48 53 53 56 60 60 57 53 52 50 47 46 45 41 38 34 31 28 25 23 21 19 17 15 13
52 51 52 51 50 52 50 45 40 37 35 33 34 33 31 35 41 44 45 50 47 47 58 60 60 57 54 52 49 47 47 45 41 37 33 30 28 25 23 21 20 18 15 13
48 51 49 48 48 50 49 43 42 36 35 33 34 31 33 38 45 48 47 49 51 53 57 61 60 56 52 51 50 48 46 43 39 35 32 30 28 25 23 21 20 18 16 14
37 41 41 43 46 44 38 40 39 38 38 37 38 37 38 39 46 47 43 41 52 56 59 61 57 53 50 52 50 48 45 43 38 35 31 29 27 25 23 21 19 17 16 15
20 29 36 35 32 33 36 38 36 36 36 35 39 37 36 38 37 39 41 50 51 57 61 61 55 50 50 51 48 47 44 41 37 33 30 28 26 25 23 21 19 18 17 15
15 22 27 30 32 33 32 32 31 29 28 28 28 33 36 37 41 41 45 48 50 57 60 56 51 50 50 47 46 45 43 39 36 33 31 29 27 25 23 20 19 18 16 15
10 17 21 23 24 25 25 25 28 30 31 30 31 32 36 35 38 44 44 46 55 58 57 53 50 50 47 45 43 42 40 37 34 31 29 28 26 24 22 20 19 18 17 16
5 12 16 17 17 18 19 25 30 28 29 32 32 36 39 40 39 43 44 49 58 55 54 53 50 47 45 42 41 39 37 34 32 30 28 26 24 23 21 20 19 18 17 17

GFSNGP_850_spd_279.txt.gz
Wind_Speed
20 25 25 24 24 25 26 26 24 25 31 24 23 15 17 18 21 32 42 45 44 43 41 39 37 34 31 29 28 26 24 21 20 19 17 17 16 14 13 12 10 9 8 7
20 20 22 25 25 25 22 29 28 28 28 23 30 31 19 23 22 32 39 44 45 44 43 41 39 36 33 31 30 27 24 22 21 20 19 18 17 15 14 13 11 10 8 7
20 19 23 24 27 29 24 22 22 25 24 22 22 19 10 15 24 34 38 41 46 48 46 44 42 40 37 33 30 28 26 24 23 21 20 19 18 16 15 13 11 10 8 6
15 17 18 15 23 26 28 27 26 26 24 21 22 29 24 17 23 30 37 40 45 46 46 45 43 39 38 34 32 30 27 26 24 23 21 20 18 16 16 13 11 9 8 7
15 15 22 27 19 19 24 29 25 26 25 22 28 21 19 25 26 32 38 45 51 47 44 43 42 42 39 36 33 31 29 28 26 24 23 21 19 18 15 14 12 10 8 7
13 18 24 25 22 31 24 18 16 18 22 24 28 12 13 31 24 26 29 35 39 44 45 44 44 45 44 42 38 33 31 29 27 25 24 22 20 18 16 14 12 11 8 7
20 19 18 20 18 33 18 7 23 25 26 27 13 17 28 17 23 28 31 39 42 46 49 48 46 46 46 44 40 34 31 29 27 26 24 22 21 18 17 15 13 11 9 7
20 20 22 9 22 20 4 11 20 23 23 25 22 19 17 13 7 20 29 35 45 50 53 51 50 49 46 46 41 36 34 31 29 27 25 23 22 19 17 16 14 12 10 7
3 5 14 25 11 12 13 10 18 24 26 26 23 20 16 13 13 14 24 32 44 49 50 52 55 54 49 47 43 40 36 32 30 28 25 24 22 20 18 16 14 13 11 9
18 17 16 19 15 22 25 9 22 26 28 27 23 22 20 16 11 12 22 30 37 45 48 48 51 50 47 49 46 41 38 35 33 31 27 24 21 19 17 16 15 14 13 11
25 31 34 38 31 20 18 24 27 29 29 28 24 23 21 20 16 12 17 26 36 45 47 48 53 50 47 49 48 44 40 38 35 31 30 26 21 19 17 20 17 14 13 12
22 31 26 35 37 33 36 35 34 33 34 30 24 25 25 23 18 15 15 22 34 41 46 47 49 48 49 52 51 47 44 39 37 36 31 29 30 29 27 23 22 19 15 14
40 44 43 49 48 44 41 39 38 37 34 32 28 27 26 25 21 19 14 21 30 38 43 47 49 49 50 53 52 49 47 44 42 38 35 33 28 30 28 25 22 19 16 14
51 49 48 50 50 45 41 37 33 33 33 31 34 32 27 25 22 19 17 23 33 38 40 44 49 50 52 54 53 50 44 43 44 41 37 35 28 27 27 25 24 21 18 15
54 51 55 54 54 50 44 42 42 41 38 36 31 30 26 25 23 20 17 21 30 36 40 44 48 49 52 56 54 50 45 45 41 40 37 33 28 27 26 25 23 22 20 17
54 52 57 58 58 57 53 49 46 45 40 37 33 30 27 25 24 21 19 21 30 37 39 44 48 51 54 55 54 49 46 46 43 41 39 34 31 28 26 24 22 22 21 18
53 47 52 55 55 55 53 49 46 44 40 40 36 30 28 25 24 22 20 22 29 35 40 46 50 52 55 56 58 53 49 46 44 42 41 38 33 31 27 25 24 22 21 20
57 63 65 62 52 54 51 51 50 47 44 39 36 34 33 28 25 20 19 21 27 33 38 45 48 50 53 55 57 54 50 50 47 44 42 38 34 31 28 27 25 24 22 20
55 61 58 60 61 58 53 46 42 39 37 40 38 42 40 35 28 24 20 26 33 36 39 44 49 53 54 55 58 56 52 52 49 44 42 39 35 31 30 28 26 25 22 21
58 57 67 58 57 57 56 55 53 49 45 40 40 41 43 40 34 27 26 33 40 44 44 46 51 55 53 58 59 57 53 53 49 45 44 40 36 33 30 29 27 25 23 22
51 52 45 54 48 53 55 49 44 46 43 43 41 42 45 41 33 28 30 36 40 41 43 49 54 52 51 59 59 54 52 50 49 48 44 40 37 33 31 29 27 25 24 23
52 49 30 44 42 45 46 46 47 44 45 44 41 41 41 37 33 30 33 40 41 44 47 51 54 53 58 62 58 54 51 51 50 47 42 39 35 33 31 29 27 25 24 22
56 46 27 39 43 43 40 41 44 45 43 42 43 41 38 35 32 29 36 39 41 48 52 52 51 54 61 59 55 53 51 51 49 45 40 36 34 33 31 29 27 25 24 23
56 30 24 33 35 36 38 38 39 41 43 40 36 38 36 33 27 27 29 42 43 51 53 52 53 59 60 55 56 53 51 49 46 42 38 35 34 32 30 28 26 25 23 22
37 20 12 25 31 33 34 34 33 34 39 39 38 33 34 31 33 31 35 41 47 48 48 51 55 57 56 56 55 50 48 47 45 41 38 35 33 32 30 28 26 24 22 21
20 10 12 20 25 27 28 31 33 33 35 36 34 32 32 32 32 32 37 43 45 46 49 52 54 58 57 55 51 47 46 45 43 40 36 34 32 31 29 27 25 23 21 20
17 5 14 17 19 23 26 29 29 30 33 31 30 31 31 33 34 37 43 43 43 49 51 51 55 59 56 50 46 45 44 42 40 38 35 32 31 29 27 25 23 22 20 19

GFSNGP_850_spd_285.txt.gz
Wind_Speed
11 13 14 19 18 17 16 13 8 16 22 17 17 18 16 22 21 24 36 40 36 29 42 49 49 45 42 42 42 39 38 36 33 32 31 29 28 27 26 25 22 20 18 17
14 11 12 16 20 21 17 17 16 18 21 12 29 37 30 24 6 29 32 44 48 50 45 50 48 47 43 45 43 42 40 37 35 34 32 30 29 29 28 26 23 21 19 17
8 9 11 13 18 16 18 15 16 16 19 15 17 20 25 31 8 39 38 42 44 44 41 44 48 48 47 48 44 42 41 39 38 37 34 33 32 31 30 27 24 22 20 18
7 8 4 11 7 13 17 17 15 9 12 13 20 31 27 40 40 36 32 45 52 50 47 51 51 49 46 44 43 42 40 39 40 39 36 35 35 34 31 28 26 22 20 18
2 6 13 19 13 8 8 20 19 5 14 20 31 24 9 47 49 47 24 40 47 50 55 55 55 53 50 46 44 44 42 41 43 41 38 38 37 35 32 30 27 23 20 19
3 4 6 3 7 14 15 15 15 16 14 18 23 7 7 47 47 50 14 25 35 42 43 50 53 54 51 49 48 48 45 43 42 41 40 39 37 35 33 30 28 24 21 19
11 11 11 10 13 21 8 3 19 19 18 18 10 12 29 40 47 44 22 20 32 42 46 54 55 54 52 51 51 48 46 43 41 41 40 38 37 36 33 31 28 26 22 20
6 9 10 22 10 6 6 15 18 23 21 19 26 36 38 39 45 43 34 6 36 46 45 51 57 58 56 54 50 49 46 43 41 40 38 38 38 35 33 32 29 27 24 21
4 5 23 33 8 11 6 15 9 17 26 23 24 31 42 43 41 44 38 25 10 39 49 54 59 58 56 54 53 51 47 45 42 40 39 39 39 38 36 33 31 29 26 23
12 4 10 30 24 16 18 19 14 14 21 23 28 32 39 46 38 45 37 37 25 17 39 50 55 55 54 54 52 51 50 46 44 42 42 40 39 39 39 37 34 30 28 26
25 17 18 15 18 28 26 25 25 27 25 26 31 34 33 38 43 39 42 40 38 24 27 48 51 49 49 52 53 52 49 47 45 44 44 43 40 41 39 36 33 32 29 26
16 25 24 26 28 25 27 30 28 28 29 28 28 28 31 39 40 38 42 44 45 38 29 45 50 49 48 52 53 53 51 48 48 47 46 45 45 43 39 34 31 27 24 23
27 33 36 44 44 41 37 32 31 32 30 27 25 26 31 31 34 37 40 43 42 38 32 29 48 52 51 52 54 54 51 49 49 49 50 50 48 45 44 37 30 27 26 24
24 28 29 35 31 32 35 35 33 35 38 38 34 33 34 31 35 39 40 46 46 39 38 15 49 53 54 54 55 54 52 49 51 52 52 50 46 46 44 42 41 37 31 28
33 39 41 44 42 43 42 42 41 36 34 35 34 33 32 33 34 40 43 47 46 38 35 17 47 51 55 56 56 56 54 50 51 51 53 50 48 46 44 43 41 40 38 35
30 31 34 31 31 35 38 41 42 35 32 33 32 32 34 36 35 36 44 43 42 39 36 31 40 49 54 55 56 55 53 51 51 53 53 51 49 46 46 44 43 41 38 35
35 33 33 35 33 31 30 32 35 35 37 41 41 37 35 36 38 38 44 45 34 36 36 26 27 43 52 55 57 56 54 52 52 53 52 51 48 49 48 46 44 42 37 34
27 29 34 34 31 31 33 35 36 37 39 42 40 40 39 42 43 40 41 43 35 41 34 20 14 39 49 53 56 56 55 54 53 52 52 51 48 50 50 48 45 42 38 35
28 30 35 34 35 37 36 36 40 48 53 49 47 46 44 46 47 44 42 40 42 45 28 12 10 42 49 54 57 58 55 54 53 53 51 51 47 48 49 48 46 44 40 38
30 34 36 37 34 36 47 54 56 52 49 47 47 47 46 47 50 48 44 46 47 43 31 16 12 36 43 53 58 58 57 55 56 54 52 50 47 44 45 46 45 46 41 39
32 34 42 48 51 56 57 56 52 53 54 49 50 52 51 46 47 51 50 52 55 45 35 24 17 32 45 53 58 59 58 57 57 56 53 50 49 43 47 45 47 43 40 39
40 47 53 56 55 59 61 60 60 61 60 58 56 53 50 46 47 53 55 56 55 46 40 30 24 33 49 53 58 58 58 57 57 55 53 52 48 46 48 47 46 41 39 38
55 50 48 56 60 62 63 59 58 59 60 57 56 57 56 52 50 50 52 56 48 43 42 36 30 36 49 48 58 59 57 57 57 56 54 54 47 47 50 49 45 38 38 38
46 55 58 59 59 57 52 53 48 50 52 52 56 58 52 48 52 56 50 45 43 42 40 37 31 38 48 50 55 58 56 57 55 55 52 50 46 48 49 46 42 37 38 37
55 57 56 53 48 45 41 44 37 36 34 34 37 45 51 51 53 50 46 45 42 33 35 40 36 38 49 53 57 57 57 56 55 53 51 48 45 46 46 46 40 37 38 36
52 49 50 49 44 43 39 21 11 17 23 28 32 39 45 47 49 46 45 47 44 36 34 37 38 43 53 52 53 56 57 55 53 52 51 44 43 42 45 44 38 37 37 34
45 48 45 45 38 43 22 17 19 22 26 30 34 35 40 44 38 36 36 36 36 36 38 36 42 49 55 53 52 55 55 53 51 49 47 43 41 40 43 40 37 36 35 32

GFSNGP_850_spd_288.txt.gz
Wind_Speed
8 10 10 13 11 5 7 9 4 9 14 10 9 12 19 26 38 43 16 35 41 43 43 44 47 47 43 40 40 41 41 41 40 38 33 32 31 29 28 27 24 22 22 21
8 7 8 13 16 10 10 13 13 15 20 2 9 19 22 28 35 38 15 32 28 33 41 48 48 49 44 42 41 42 42 41 40 36 34 34 32 32 30 28 25 23 22 22
4 9 9 8 10 13 7 7 8 9 12 12 8 8 17 26 29 33 34 12 26 41 41 43 45 46 50 47 46 44 43 43 40 37 37 35 33 33 33 30 27 25 24 22
4 7 3 4 11 10 10 6 11 10 13 14 16 21 9 29 30 32 41 34 23 33 39 46 51 50 53 48 48 47 46 44 41 40 39 37 36 35 34 31 28 27 25 23
2 5 10 12 5 3 4 3 14 12 14 21 28 13 5 38 36 32 41 40 37 29 47 45 53 47 53 52 52 48 47 46 43 43 41 39 38 38 36 33 30 27 25 24
4 4 5 4 15 25 9 1 13 15 13 17 23 7 8 35 37 39 40 47 44 25 38 42 46 50 54 54 52 49 48 47 46 46 42 40 40 39 38 33 30 28 26 23
8 8 4 10 19 24 4 2 14 15 14 16 6 4 18 27 36 33 35 49 47 12 40 47 50 51 53 55 52 49 45 46 47 45 42 41 41 40 38 35 32 30 27 26
4 4 10 23 8 6 5 8 13 8 14 14 16 17 23 27 32 36 36 43 44 28 2 27 47 50 53 54 50 47 45 46 45 43 43 42 41 41 38 37 35 33 31 28
2 3 19 14 10 18 12 13 15 9 14 19 22 22 26 28 29 34 38 38 38 37 22 7 29 42 48 50 49 48 46 47 44 43 43 41 43 42 42 40 38 36 34 32
8 3 13 26 26 28 10 15 21 19 21 26 21 28 29 30 26 32 33 40 34 34 30 22 14 37 41 46 49 48 45 45 42 44 44 42 43 42 45 45 42 40 37 35
14 17 22 29 29 17 23 32 25 20 24 24 25 29 30 28 27 26 34 36 39 29 33 30 16 29 37 46 50 49 45 45 44 45 45 44 43 44 47 45 42 42 39 36
14 25 23 32 30 34 32 23 32 34 32 29 28 26 23 27 26 29 28 37 38 29 31 29 27 16 40 47 52 50 47 47 46 47 47 44 44 45 45 41 40 37 33 32
28 37 39 43 38 33 35 38 37 33 31 29 23 23 31 40 42 33 31 32 34 32 29 33 29 15 41 51 53 51 51 50 49 49 49 48 47 46 46 41 38 35 31 29
32 34 34 29 27 31 33 36 36 35 38 36 36 38 35 34 36 38 29 27 34 37 34 28 32 29 36 52 54 53 52 51 51 50 48 50 47 47 45 42 43 40 33 30
36 41 38 40 37 38 38 37 37 38 38 38 37 36 32 35 39 40 37 32 31 38 39 32 33 32 30 52 56 55 54 54 51 49 49 48 46 46 45 47 44 42 38 33
36 36 36 37 36 33 32 34 33 33 34 37 36 32 30 25 27 34 38 37 34 37 35 34 29 31 18 52 57 57 56 54 52 50 48 48 47 47 48 48 46 45 43 41
29 31 33 34 35 35 33 35 36 37 33 32 32 35 38 39 41 42 47 46 38 39 41 38 30 36 32 50 58 59 56 53 52 50 48 47 48 49 48 47 44 46 45 42
42 40 37 30 25 26 30 35 36 37 39 41 42 41 40 39 40 39 39 41 44 42 44 43 33 31 30 42 56 56 56 53 53 51 49 47 47 49 50 49 45 45 46 43
20 18 22 25 28 33 36 37 38 40 43 41 41 42 44 48 50 47 46 47 48 49 53 43 32 31 24 34 52 56 56 53 53 52 50 48 47 47 48 47 44 43 46 45
18 23 31 35 35 37 39 41 43 45 46 44 46 49 52 52 49 43 41 51 54 57 49 40 31 25 17 25 50 55 55 52 54 53 51 49 47 44 44 44 46 44 46 46
28 34 33 32 36 39 40 42 44 49 49 50 52 54 52 49 46 43 43 50 57 53 52 46 36 31 26 17 43 51 55 53 53 54 52 49 46 46 44 45 45 42 46 45
31 29 32 36 39 45 51 50 48 52 56 56 56 55 51 50 47 47 51 56 51 49 44 47 43 36 35 22 35 51 52 55 53 53 52 49 47 46 44 43 46 41 43 45
34 34 40 47 50 51 52 57 59 56 58 57 58 57 57 54 48 46 51 59 53 51 48 47 42 36 38 28 31 52 51 56 56 55 53 50 48 44 44 43 46 39 38 42
38 43 49 48 49 50 53 57 54 51 51 53 55 57 56 52 51 57 58 46 45 51 48 48 43 40 38 33 35 48 52 55 55 54 52 50 48 46 43 42 43 37 35 37
43 49 51 50 48 47 47 52 53 51 49 47 45 50 52 53 54 49 47 45 46 45 44 47 44 37 35 34 39 43 48 54 54 51 51 49 48 45 45 39 37 35 35 35
47 46 48 49 47 48 50 49 44 44 38 32 26 27 35 42 45 45 44 43 46 45 42 37 38 38 36 34 41 41 45 49 52 50 48 47 46 42 43 40 34 33 34 35
42 45 43 44 45 44 44 44 39 37 22 21 19 14 17 30 41 46 42 43 44 42 40 34 33 35 36 35 38 42 42 44 47 46 45 45 42 39 37 32 32 32 31 34

GFSNGP_850_spd_294.txt.gz
Wind_Speed
7 5 4 5 8 5 3 4 2 3 3 5 7 6 11 14 23 28 31 34 32 28 22 14 16 22 25 30 37 41 40 37 38 38 36 33 32 30 29 27 25 23 24 23
5 9 5 6 5 5 5 5 7 6 6 6 10 13 16 21 23 27 27 29 31 28 24 17 13 17 21 25 29 34 39 38 38 38 37 35 33 32 31 28 26 25 25 25
2 5 7 7 4 8 4 1 2 4 1 5 6 10 16 19 23 26 30 32 35 33 29 23 16 13 22 21 26 32 38 39 39 37 38 37 33 33 33 31 28 28 27 27
2 1 0 2 6 1 9 6 6 7 6 7 4 4 20 24 22 26 31 31 33 35 32 26 23 19 22 22 24 30 39 41 39 37 35 35 35 34 34 33 30 30 29 28
3 5 6 2 4 4 3 3 6 1 4 9 18 5 2 21 22 22 26 31 31 33 33 29 29 24 24 26 23 28 38 41 39 38 37 36 35 34 36 35 33 31 30 30
3 3 5 1 5 6 3 4 4 5 6 6 12 3 2 16 20 23 24 27 33 32 32 32 26 20 14 26 25 27 38 42 41 38 37 36 33 36 39 36 34 32 32 31
6 4 4 1 7 7 6 2 4 2 9 9 1 2 10 13 18 22 24 25 27 31 30 32 31 20 10 21 29 29 35 42 42 41 40 38 31 39 41 36 35 34 34 32
4 5 8 5 1 1 2 2 6 12 9 7 6 10 15 20 20 23 23 24 26 28 30 30 29 28 14 10 22 29 33 36 40 41 38 38 41 43 40 37 38 39 36 34
7 5 4 6 7 8 8 10 15 19 20 17 14 17 15 17 24 26 27 22 23 27 28 27 29 26 26 16 11 21 30 32 35 37 39 40 45 45 42 42 42 43 40 38
8 12 16 25 31 21 16 18 17 15 19 16 18 19 21 23 26 30 30 24 21 26 30 27 26 26 21 24 21 19 28 29 32 34 36 39 42 45 45 46 45 45 43 43
20 19 19 24 26 29 32 21 18 23 24 28 32 34 29 30 28 31 27 23 22 28 29 26 25 23 22 19 25 18 26 30 29 33 36 42 45 47 48 46 44 46 47 45
17 11 18 27 33 33 36 27 25 30 31 30 31 33 28 28 32 31 31 28 28 31 30 25 25 23 18 22 20 15 17 31 33 32 39 42 45 45 46 45 42 42 42 42
31 35 38 39 35 32 32 34 39 38 37 37 34 30 31 34 32 33 33 30 33 36 31 25 26 24 23 23 24 20 19 18 35 35 41 43 46 46 46 45 43 41 39 38
33 36 39 38 36 39 40 40 39 36 33 34 33 30 30 30 35 35 36 35 33 31 27 26 27 27 25 26 20 27 26 22 30 40 46 47 46 45 45 47 46 44 41 39
34 32 39 38 40 38 41 41 35 35 35 35 34 30 32 35 33 35 35 31 30 29 27 27 26 29 27 30 33 27 26 26 23 38 41 43 41 44 44 44 45 45 43 39
30 37 37 39 41 41 39 36 36 37 36 35 33 34 34 35 36 35 33 33 35 35 31 30 28 31 38 39 35 26 24 23 21 37 38 41 42 43 43 43 45 45 44 42
30 28 31 32 34 36 35 40 40 37 34 33 32 29 31 32 33 34 35 34 35 36 35 36 37 38 39 32 29 28 27 24 19 27 39 42 46 44 45 44 46 42 44 43
31 32 33 33 33 31 31 31 32 32 31 34 31 32 34 36 39 40 41 40 40 42 43 43 39 35 37 36 33 33 32 28 22 25 41 46 47 48 47 45 44 41 41 40
23 25 25 28 29 31 33 30 28 28 27 29 34 38 39 39 41 42 43 44 45 46 48 45 44 39 39 40 40 37 31 28 25 27 39 45 46 45 45 45 45 42 43 42
10 11 13 19 23 25 27 26 28 32 36 39 41 42 43 46 47 48 48 51 53 53 50 45 42 40 41 41 40 34 29 31 29 32 33 46 50 48 46 44 41 42 44 44
20 20 22 23 27 28 32 36 38 41 42 42 44 47 49 50 48 47 48 49 62 49 45 45 45 46 45 44 42 36 30 32 35 31 34 45 46 44 47 42 40 41 43 42
26 26 30 31 31 34 35 36 37 41 41 43 46 48 49 50 46 48 52 54 53 45 40 43 44 43 40 37 38 37 34 35 35 29 35 43 45 45 44 43 40 38 41 41
32 33 34 35 36 38 38 39 41 42 45 46 47 47 47 49 50 45 46 40 43 45 44 45 45 45 44 39 36 36 33 35 37 30 38 44 45 41 40 38 38 36 35 38
35 37 39 39 38 40 42 43 42 41 44 46 47 48 49 49 47 43 46 46 42 42 44 44 40 37 36 36 34 32 33 34 36 31 36 39 38 35 35 35 35 35 33 36
40 41 41 41 41 42 42 40 39 41 42 44 44 45 45 45 47 45 45 44 43 41 41 40 42 38 33 35 36 35 34 33 37 31 25 38 37 34 32 30 30 29 33 34
38 39 39 38 41 41 42 42 44 44 40 41 42 42 44 44 43 39 40 42 39 39 38 37 36 36 37 36 37 36 34 33 37 33 28 35 33 30 28 27 26 28 30 29
37 37 38 38 39 40 41 40 41 44 43 42 44 45 43 44 42 42 38 39 40 36 38 38 38 37 35 36 35 35 32 29 31 31 33 31 29 26 23 23 24 24 25 26

GFSNGP_850_spd_300.txt.gz
Wind_Speed
8 12 11 10 10 7 3 4 8 11 16 16 10 9 10 11 12 14 16 18 19 19 18 17 15 13 8 4 1 3 6 11 14 17 23 27 29 29 28 30 26 23 24 23
8 3 8 14 14 9 7 6 4 6 13 8 9 11 10 11 12 14 16 16 16 17 18 19 19 17 13 6 2 5 7 8 11 15 23 27 31 32 29 30 29 30 30 27
5 5 9 11 10 11 8 5 6 9 5 12 9 9 10 10 11 12 13 15 17 17 17 18 20 21 19 12 5 5 6 7 10 13 18 25 29 33 34 33 32 31 26 26
6 8 7 4 2 5 7 3 3 3 6 6 10 10 10 9 9 10 11 12 13 15 16 18 19 21 20 15 4 2 2 6 11 11 14 21 28 32 35 33 32 31 28 26
4 6 12 10 3 2 5 9 5 6 6 6 8 8 8 7 8 9 9 10 11 13 14 16 19 20 19 16 10 5 3 2 7 9 11 17 23 31 33 34 33 31 28 27
6 6 5 5 2 2 2 9 10 7 6 5 6 8 5 5 3 5 7 9 10 11 12 14 15 15 16 14 13 11 7 4 5 9 10 11 18 27 31 32 30 30 30 26
11 10 7 4 3 1 6 2 6 5 5 5 5 3 7 2 1 3 5 7 9 9 9 11 13 13 12 13 15 15 13 9 6 7 10 10 14 23 29 31 32 32 30 27
11 15 15 6 4 9 8 8 6 3 3 1 3 5 5 5 7 8 9 9 9 10 9 9 11 12 12 12 13 14 14 11 9 8 9 11 13 20 25 30 32 32 31 30
8 8 3 2 10 3 5 3 1 4 7 8 10 11 12 12 11 11 12 13 12 12 12 10 10 11 11 12 12 13 14 13 10 9 10 11 14 17 24 30 35 34 33 32
16 19 22 13 12 14 15 10 11 13 15 17 16 15 14 13 13 14 15 16 16 16 15 14 12 12 12 12 12 12 12 14 10 10 11 13 14 16 20 29 36 37 37 35
22 27 28 24 23 27 27 26 25 26 25 23 21 21 18 17 17 16 17 17 18 18 19 18 17 15 14 13 12 12 11 12 12 11 14 15 17 19 21 23 29 39 37 36
18 24 23 27 25 22 24 25 31 31 27 23 25 26 27 26 23 21 19 18 18 19 20 20 20 19 18 16 16 14 13 11 11 12 12 18 21 22 22 25 26 29 34 38
31 36 36 33 28 31 32 34 34 34 33 30 29 28 27 25 24 24 22 21 21 22 22 21 22 22 21 19 17 17 15 14 13 14 13 13 17 22 27 27 28 29 31 33
23 23 30 32 34 35 34 34 34 35 36 34 32 29 28 29 27 25 24 23 23 23 22 23 23 23 21 19 18 19 19 19 18 16 17 17 18 21 24 30 32 32 30 33
30 32 36 36 36 36 33 34 33 34 33 33 31 32 32 30 27 26 26 25 25 25 26 25 25 24 22 21 20 22 22 21 20 19 19 20 20 24 26 31 32 33 31 27
24 30 34 37 34 31 30 25 27 31 31 29 30 28 28 28 27 27 26 25 25 27 26 26 26 25 23 23 24 25 25 25 26 24 22 21 21 23 25 31 35 36 35 32
23 24 27 30 32 31 31 28 26 26 26 26 26 27 26 26 26 25 25 26 27 28 27 26 27 25 25 26 26 27 26 26 26 25 24 23 22 23 27 30 37 37 37 36
13 19 25 27 26 28 27 27 25 24 25 25 25 25 25 25 26 26 27 27 28 29 29 28 28 27 28 28 28 29 29 30 30 29 27 26 25 23 26 29 35 38 37 37
12 13 13 15 18 22 23 25 26 25 24 24 24 24 26 26 26 27 26 27 30 30 33 31 32 33 32 31 32 34 33 33 33 32 32 31 29 28 27 31 31 37 36 41
19 22 19 15 14 14 15 16 17 18 19 20 21 25 28 28 29 31 32 32 33 36 34 35 34 33 32 31 33 36 38 38 37 35 34 34 32 34 36 33 32 34 37 41
29 25 21 19 20 17 16 18 19 20 22 21 23 27 31 34 36 38 37 36 45 39 35 36 36 39 39 41 39 38 38 39 38 38 37 37 38 41 42 37 35 33 37 37
28 29 28 27 26 26 26 23 22 22 24 26 28 32 36 38 37 40 43 44 45 42 41 40 41 40 39 38 35 36 37 37 38 39 37 38 39 40 43 40 38 36 36 38
33 32 33 35 34 34 32 29 29 28 30 32 35 36 36 37 36 36 39 38 38 40 37 39 40 39 37 36 37 38 39 38 39 40 39 40 41 40 42 40 39 39 37 36
33 31 33 33 33 33 34 36 34 34 34 34 35 37 36 38 40 40 42 44 44 43 43 43 41 39 36 38 39 38 37 38 38 40 41 41 40 39 38 39 38 41 38 36
29 28 29 30 32 34 34 35 37 38 37 38 38 38 39 40 42 44 39 38 38 38 39 40 39 39 39 42 40 40 39 39 40 39 39 39 39 40 40 40 40 40 36 35
29 30 29 29 30 31 32 33 35 35 35 37 38 38 38 38 38 39 39 41 40 41 42 41 39 37 37 38 38 39 37 36 36 39 40 39 40 39 39 38 38 36 33 34
28 28 29 30 32 32 33 34 35 36 35 36 40 38 36 36 38 40 42 42 40 39 39 38 36 37 36 37 38 38 36 33 34 35 38 39 39 38 37 34 37 32 30 32

GFSNGP_850_spd_306.txt.gz
Wind_Speed
10 10 13 18 18 18 18 18 9 13 12 19 18 17 18 21 20 18 19 18 15 15 15 14 14 11 8 4 8 14 15 13 12 15 17 21 23 23 23 26 26 23 24 21
18 14 8 15 18 17 17 16 16 14 9 16 19 22 19 19 19 19 18 18 16 15 15 15 14 11 8 7 5 9 10 12 14 14 14 16 17 19 22 26 29 29 26 25
13 8 11 11 8 10 12 15 14 10 4 5 11 12 15 17 18 18 17 17 17 15 14 15 16 16 12 10 6 8 4 5 7 9 13 15 16 18 21 27 29 26 28 28
11 11 9 5 4 1 8 12 12 10 7 11 4 13 16 14 14 15 15 14 14 14 13 13 15 15 17 15 13 8 7 5 1 8 11 12 13 16 19 24 29 29 29 27
10 12 14 15 3 2 1 7 11 12 13 9 16 14 12 13 13 12 11 11 12 12 11 12 13 13 15 16 14 11 10 5 1 5 5 9 11 13 17 21 25 27 28 28
11 13 11 4 5 3 1 9 9 10 8 11 17 7 9 9 9 9 9 9 9 9 10 11 12 11 11 13 13 12 10 7 2 3 5 2 7 10 13 16 20 24 26 25
11 11 15 17 6 5 5 2 6 3 8 7 6 3 6 7 5 3 3 5 5 6 8 8 9 9 9 10 11 10 10 8 4 3 5 6 3 4 9 13 16 21 23 24
12 14 15 14 1 6 4 5 6 9 6 7 4 4 1 3 2 1 1 1 2 3 4 5 5 6 7 8 8 8 8 8 6 5 7 9 7 3 4 9 14 19 23 24
8 8 26 16 14 5 1 4 2 7 7 5 3 1 1 5 8 6 5 5 5 4 2 3 3 3 4 4 5 6 7 6 6 3 1 8 9 7 4 6 11 17 20 24
17 21 24 29 19 15 10 12 11 11 10 7 6 5 8 9 10 11 8 7 7 7 7 6 5 4 5 4 4 4 5 5 4 5 2 3 9 7 7 7 11 18 21 27
21 20 26 27 25 28 27 27 17 19 15 13 11 13 11 11 14 14 14 12 10 9 10 9 9 9 8 8 7 6 5 5 5 4 7 4 7 11 10 10 10 10 17 23
13 25 24 23 30 29 27 28 28 23 25 25 23 17 16 15 18 19 19 18 16 15 13 13 12 12 12 12 10 10 9 8 7 7 8 8 7 11 12 12 14 15 15 15
21 28 31 27 27 28 32 30 32 30 29 30 21 16 17 18 19 25 24 21 21 22 16 16 17 18 16 16 15 14 13 12 11 12 11 10 9 12 12 15 20 20 21 21
27 26 28 27 30 29 31 28 27 25 23 27 28 25 22 21 21 25 32 28 25 25 22 20 20 20 18 17 16 16 16 15 16 16 16 16 16 15 11 13 16 15 17 19
15 17 20 20 23 27 30 29 27 26 24 27 30 27 25 24 25 26 29 31 25 26 24 23 22 21 19 19 18 18 17 17 17 17 16 16 17 19 19 19 20 20 21 21
22 9 13 19 20 23 24 24 27 28 29 31 31 30 27 27 27 30 30 29 25 24 25 25 23 20 19 20 20 20 20 21 22 23 24 22 18 16 16 18 22 23 24 29
17 14 17 18 18 16 19 20 23 24 27 28 28 28 29 29 24 26 29 28 27 28 24 23 23 22 21 21 22 23 23 22 21 21 19 19 23 26 26 23 22 23 25 28
17 22 22 22 26 25 22 25 24 20 25 27 30 30 28 24 25 28 26 25 22 22 25 23 23 22 22 23 24 25 25 25 24 22 22 24 25 26 27 28 30 30 29 28
20 23 24 26 27 29 30 30 31 30 24 23 23 27 29 25 30 23 25 21 25 21 25 22 23 22 23 22 24 26 27 23 22 23 24 24 25 29 31 31 33 34 34 33
27 26 27 29 31 31 32 32 34 38 32 23 23 24 20 22 23 26 28 27 25 20 19 21 22 23 24 26 27 30 32 33 35 37 39 37 37 37 36 36 38 39 39 38
33 33 34 35 38 38 38 37 35 38 36 28 26 27 23 20 18 24 26 29 33 32 32 32 32 33 33 33 32 32 32 31 31 33 36 38 38 39 39 40 40 40 40 40
40 40 41 43 44 40 39 38 36 35 36 34 29 26 22 22 22 23 27 30 30 29 29 31 33 33 33 34 35 35 36 36 38 38 38 39 40 40 41 43 45 45 44 43
41 40 39 36 33 34 35 33 34 35 36 33 34 31 32 30 28 28 30 31 30 30 30 31 32 33 33 33 34 35 36 37 39 39 40 41 41 42 42 42 43 44 44 43
38 37 35 34 31 30 30 31 30 30 33 34 34 35 35 33 33 33 33 34 34 34 34 36 35 35 34 36 37 37 37 39 40 41 41 41 41 41 43 45 45 45 46 45
37 35 33 31 30 28 27 27 27 28 30 33 36 36 37 38 36 35 36 36 36 36 38 38 39 39 39 41 42 45 44 43 42 39 40 43 44 43 44 44 44 44 43 43
35 33 30 27 27 27 27 27 28 27 26 28 31 32 32 34 37 40 39 37 35 35 35 35 36 36 39 42 44 44 42 41 40 41 41 43 44 45 45 45 44 42 41 41
32 30 29 28 25 24 23 23 25 28 28 28 29 30 30 31 31 34 36 39 41 42 42 40 39 39 40 41 41 41 41 41 40 40 40 40 40 40 40 40 40 40 40 39

GFSNGP_850_spd_312.txt.gz
Wind_Speed
7 16 13 16 14 13 9 7 4 9 11 14 16 4 13 21 23 26 29 33 29 25 17 15 14 13 19 21 24 29 24 24 26 29 31 22 27 11 28 38 44 39 36 26
10 11 12 15 15 8 5 7 8 10 6 14 20 16 18 21 23 24 27 33 30 24 21 14 15 14 17 16 16 22 32 40 36 30 39 22 14 28 32 32 40 30 20 21
10 7 11 6 10 8 2 4 5 5 5 8 14 14 16 21 24 24 28 30 33 27 24 20 16 16 17 12 11 16 17 16 21 24 27 28 39 43 37 35 43 36 38 38
7 7 3 3 19 3 6 2 4 5 6 9 12 15 17 21 27 28 26 25 28 27 26 23 21 22 22 20 14 11 11 12 13 17 21 23 24 24 27 28 34 38 37 33
3 5 8 10 15 12 3 4 13 8 3 6 15 13 18 19 22 25 22 20 19 24 22 21 25 23 22 21 18 15 12 10 7 9 12 15 16 17 17 19 21 23 25 26
4 3 3 8 18 29 8 3 27 25 5 2 2 1 5 24 16 20 21 16 15 16 22 19 17 13 20 23 19 11 14 16 15 9 7 8 9 11 11 12 15 17 19 21
5 4 4 15 19 22 2 9 25 32 3 2 1 5 9 16 13 14 23 22 12 15 17 17 16 16 16 17 23 18 10 10 15 17 14 8 8 9 10 11 11 11 13 16
3 3 1 20 9 6 4 9 15 27 30 11 15 18 12 12 15 6 8 19 23 15 15 15 15 16 16 17 13 16 15 13 9 12 13 15 10 4 6 7 9 9 11 13
5 4 12 12 8 2 7 14 11 17 26 27 22 13 14 11 7 5 2 0 10 16 18 14 13 11 13 13 13 14 12 14 13 7 8 9 11 11 6 4 4 5 7 10
9 6 13 6 7 9 15 12 12 12 11 21 16 18 14 12 13 5 2 6 1 3 2 8 9 10 11 10 9 10 11 11 11 10 8 6 7 9 8 8 5 2 4 6
7 10 12 4 13 16 18 15 16 15 11 11 23 22 18 17 18 12 6 3 3 7 6 7 8 9 6 7 7 8 8 7 7 8 8 9 11 7 6 4 4 3 3 4
5 14 13 15 21 19 19 21 18 19 17 13 13 21 23 22 22 17 14 11 8 3 3 3 3 6 10 8 8 7 7 7 8 11 10 11 12 13 9 8 8 1 2 2
6 12 13 15 15 13 10 10 12 16 18 20 16 17 17 21 23 23 19 15 15 14 12 8 8 10 9 11 14 15 14 10 10 10 10 13 13 13 13 12 12 12 8 7
11 11 9 12 13 17 18 15 13 17 16 14 14 14 18 16 18 25 21 18 16 17 16 16 16 14 14 14 16 14 15 12 11 12 11 12 12 12 14 15 16 15 13 9
12 9 10 13 16 16 17 18 19 16 14 17 18 17 16 14 15 19 25 23 20 17 18 17 18 19 14 14 17 16 17 17 14 15 15 14 13 12 12 14 10 10 12 14
22 20 19 21 21 21 20 21 20 21 18 18 19 19 16 18 19 19 16 24 25 23 21 23 22 17 19 18 18 20 22 21 21 18 17 18 19 19 18 16 14 14 16 17
21 21 24 25 25 25 27 29 28 26 24 25 26 23 23 22 23 23 25 26 26 26 24 27 26 22 19 18 20 23 26 25 24 22 22 22 22 19 19 19 18 18 17 16
25 28 32 31 34 32 31 32 34 35 35 31 29 29 28 29 28 26 26 26 27 28 28 27 31 29 25 25 28 27 27 27 27 25 24 23 22 23 23 23 24 25 25 23
26 31 33 34 33 33 35 39 39 38 39 39 35 33 32 33 30 28 30 29 30 29 33 31 31 33 30 24 25 29 28 28 29 27 25 24 26 26 26 26 26 26 26 27
32 31 35 40 40 40 40 37 37 39 39 38 39 39 39 39 40 41 39 33 32 32 30 31 32 31 30 29 29 22 22 23 24 25 25 25 25 24 25 27 28 29 31 33
32 36 38 38 41 39 37 37 35 35 37 37 36 37 40 42 41 39 36 35 32 30 28 28 29 29 26 26 25 22 25 24 24 27 28 28 27 27 28 29 31 33 36 39
37 38 39 39 39 40 37 34 33 33 32 33 33 36 35 37 36 35 36 34 32 31 30 24 23 25 27 30 30 29 30 33 32 34 32 32 34 36 37 37 39 39 39 39
37 38 39 38 36 34 32 31 30 29 28 28 31 31 32 32 33 34 34 35 34 31 31 29 26 25 25 28 30 30 31 32 33 34 34 34 34 34 34 35 35 36 38 40
37 40 39 39 36 35 34 33 30 27 26 25 25 25 26 29 30 29 31 32 30 30 30 31 28 28 25 26 28 28 29 29 30 30 31 32 32 32 35 38 40 42 43 43
41 38 38 37 36 34 33 31 31 27 26 24 22 22 22 21 25 28 27 25 26 29 32 34 35 34 33 32 31 31 31 32 32 31 32 34 35 36 37 39 41 42 44 45
37 36 37 36 34 33 32 32 31 32 30 26 25 23 22 21 23 24 23 23 25 27 29 31 33 35 38 38 38 35 35 37 37 38 39 39 40 41 41 45 46 45 44 43
36 35 35 37 37 36 38 38 37 36 33 31 29 24 24 23 22 23 26 27 28 29 31 32 33 33 33 32 33 35 36 36 37 38 39 43 46 51 46 43 44 42 40 40

GFSNGP_850_spd_315.txt.gz
Wind_Speed
6 15 10 15 17 14 6 4 5 8 10 14 15 13 13 17 21 28 28 30 26 27 24 11 12 23 28 30 33 33 31 31 32 43 40 37 37 30 33 13 15 34 44 44
9 11 10 14 12 14 8 8 7 8 7 12 22 23 25 23 22 26 27 30 28 22 23 20 18 14 14 17 18 23 22 21 24 26 25 34 34 32 31 33 24 27 36 40
5 10 14 3 10 13 9 14 11 9 7 11 13 14 23 25 24 22 26 33 28 26 23 22 20 20 20 14 11 13 19 18 20 21 24 26 28 27 29 26 25 26 25 22
5 7 3 1 11 12 13 22 21 20 9 11 12 16 18 31 23 24 28 30 31 28 23 23 22 22 22 22 17 15 14 13 15 19 23 24 27 25 21 25 28 29 29 27
1 2 8 4 11 9 9 7 19 19 28 6 9 8 15 26 28 28 23 25 25 27 26 26 26 20 21 24 24 19 12 10 10 12 12 19 25 29 30 32 33 32 31 32
6 3 2 10 16 29 14 3 20 23 23 27 15 1 3 21 20 25 27 23 24 20 22 26 21 20 22 20 21 21 19 17 9 10 9 11 14 17 19 20 20 21 24 28
6 4 5 13 20 25 4 6 17 16 16 28 13 11 16 15 8 15 20 25 26 23 21 22 23 21 24 23 23 14 17 19 20 14 9 7 8 10 12 12 12 13 14 15
6 4 1 25 12 7 3 10 9 9 13 15 21 32 29 21 19 13 15 12 23 27 27 20 19 21 23 25 20 17 14 14 17 20 20 14 7 6 7 8 9 9 9 9
4 6 15 13 11 6 9 15 7 7 11 17 15 20 27 26 18 14 11 9 7 13 20 22 21 16 18 17 16 17 17 17 14 13 14 17 16 13 7 5 5 7 7 8
8 4 11 15 15 18 19 20 17 17 13 13 12 14 16 23 23 19 17 14 8 5 6 10 11 16 16 15 12 12 14 14 15 15 16 18 15 14 13 13 9 6 4 4
7 9 17 5 22 21 22 21 20 18 18 19 16 13 13 13 20 20 20 12 4 4 12 11 8 8 8 11 9 11 10 11 11 12 12 13 14 14 12 11 9 8 9 6
4 19 11 15 14 13 15 15 13 14 15 20 19 18 19 17 14 17 18 22 13 6 4 2 4 6 6 5 6 5 4 6 7 7 8 9 10 11 10 10 11 9 9 4
6 18 15 13 12 15 17 16 16 17 18 16 15 17 15 15 17 16 16 20 21 16 11 12 12 8 8 10 10 9 9 9 5 4 4 5 5 6 6 7 8 9 9 7
19 19 17 21 22 23 22 22 20 19 20 20 19 19 17 15 14 15 17 17 23 20 16 13 13 12 12 12 14 14 12 10 8 6 7 9 9 10 9 8 7 5 2 2
17 19 19 22 24 26 27 28 28 27 24 24 26 25 20 19 16 16 16 17 17 25 24 19 15 16 14 14 15 16 16 15 12 11 11 12 12 11 9 8 6 4 3 4
21 26 26 26 30 34 35 35 33 36 34 28 25 26 28 27 25 23 20 19 19 20 21 25 20 16 18 18 18 17 18 19 19 18 17 17 18 17 17 16 15 14 12 12
22 24 28 30 34 34 34 33 34 34 34 34 32 33 33 33 32 30 29 27 25 23 20 23 25 22 21 22 21 18 18 23 23 24 23 21 22 22 21 21 21 19 17 15
27 29 31 35 36 36 36 37 37 36 35 37 39 38 35 34 36 37 35 31 31 33 30 23 22 25 25 24 25 26 25 23 23 29 27 27 26 25 24 23 23 20 20 20
31 33 33 32 38 38 44 41 38 38 39 38 37 37 38 38 37 38 39 39 38 36 35 32 26 23 28 27 27 25 26 28 30 31 31 29 28 26 25 26 25 23 22 21
35 33 35 38 36 39 41 39 39 38 36 35 36 37 39 41 41 40 39 40 42 43 41 37 30 28 26 31 32 29 27 31 30 31 32 32 31 30 30 29 27 24 22 23
33 36 38 39 35 41 38 37 36 38 38 38 35 37 38 38 37 38 40 41 43 41 41 38 34 33 27 28 30 28 25 27 28 27 25 25 25 26 25 25 24 25 28 30
36 38 39 38 38 41 38 34 32 33 33 33 33 33 34 36 35 36 36 39 41 35 33 33 34 33 31 26 26 28 30 28 26 26 28 30 29 29 27 26 29 33 32 33
37 38 38 39 39 40 38 34 33 33 32 32 31 31 32 31 30 32 34 30 29 31 34 37 35 34 30 27 24 24 28 31 32 33 33 34 35 36 37 35 36 36 34 34
37 39 40 37 37 36 35 34 33 30 30 29 28 27 27 28 30 29 28 28 28 28 28 29 33 36 31 31 28 27 26 28 31 33 34 35 34 34 33 33 33 33 32 32
39 38 35 35 35 35 35 35 35 35 34 33 30 27 25 25 26 26 26 24 23 24 26 27 29 30 30 30 30 30 31 30 30 30 31 30 31 31 31 30 30 32 34 36
35 35 34 32 33 34 36 38 37 40 39 38 35 29 26 24 24 24 23 24 24 23 21 21 21 25 29 32 34 34 35 36 36 35 34 36 36 36 37 38 38 39 39 41
33 31 31 34 33 35 37 39 39 40 39 39 34 26 25 24 22 21 23 24 25 28 29 29 29 29 30 32 33 34 36 39 39 41 38 35 37 39 39 40 40 43 46 47

GFSNGP_850_spd_318.txt.gz
Wind_Speed
12 16 16 14 14 17 11 15 8 8 15 15 15 16 21 27 30 31 31 33 33 34 32 21 13 20 27 32 36 40 39 39 43 44 46 44 44 44 42 42 42 39 40 34
8 12 6 14 10 12 14 15 14 14 10 19 17 24 29 31 32 34 34 32 31 31 28 28 21 14 20 25 29 30 31 35 36 37 41 39 39 38 37 39 36 39 41 45
4 9 13 1 10 12 12 18 14 15 18 23 11 13 24 29 33 34 35 33 35 32 30 27 25 21 15 16 23 27 30 33 32 33 37 36 36 31 27 28 30 31 30 33
5 7 5 6 16 11 11 20 18 17 22 27 24 12 25 38 31 34 35 36 37 35 35 27 24 24 21 16 15 18 18 19 21 17 19 26 27 27 27 26 27 27 23 18
3 3 6 15 18 16 12 12 16 18 21 29 39 14 22 40 34 30 33 30 27 32 30 34 26 25 26 26 21 20 15 15 20 26 25 22 26 27 27 24 21 18 17 18
5 3 3 13 20 37 8 10 19 20 19 20 28 15 12 40 28 26 29 31 26 28 30 31 31 32 27 29 29 30 20 18 12 19 19 19 18 17 18 20 19 20 21 23
8 4 6 13 27 17 10 8 23 17 17 17 8 9 25 34 31 20 21 26 27 23 27 28 29 26 32 29 28 27 28 24 20 18 16 15 13 12 12 14 14 14 12 13
5 4 5 27 13 10 6 17 22 21 19 19 18 22 24 31 31 28 23 21 26 25 24 31 29 26 27 28 26 24 25 26 26 24 23 18 13 11 10 10 10 8 9 10
3 4 12 19 15 21 21 17 20 21 26 22 23 22 26 20 25 25 22 22 18 18 19 16 25 30 24 20 20 22 25 26 26 24 26 26 23 13 13 11 10 8 6 5
8 15 20 21 24 25 24 22 22 23 22 22 22 23 24 24 22 22 20 23 25 17 14 9 14 16 18 19 17 17 20 20 21 23 27 26 21 19 19 18 14 12 10 8
4 10 18 18 21 22 24 24 24 22 22 22 24 24 23 21 20 19 17 16 21 25 19 14 10 8 12 12 14 15 15 15 16 17 18 19 20 20 20 19 18 15 14 10
3 14 7 14 20 23 26 25 25 25 26 24 24 24 24 22 22 18 18 17 14 19 23 18 9 6 4 6 5 5 10 13 11 10 11 13 14 15 13 15 15 16 14 10
6 15 15 16 21 22 24 26 27 25 25 27 27 26 25 24 21 20 17 17 15 17 22 20 17 9 6 8 10 10 10 8 6 4 5 7 8 9 10 10 11 11 9 11
15 18 22 24 29 31 31 34 33 33 32 31 31 29 29 28 26 23 22 19 17 18 20 19 18 14 8 9 10 12 12 10 8 5 4 4 5 6 6 7 6 5 4 4
18 18 21 26 28 28 33 35 36 35 32 32 33 33 32 32 31 28 27 26 23 22 21 22 22 18 12 9 9 12 12 13 13 11 9 7 6 4 3 3 5 3 1 0
23 24 26 26 30 32 33 34 33 34 32 36 33 33 34 33 35 35 34 31 30 29 25 24 23 22 19 16 15 13 12 13 15 17 17 15 13 12 10 7 5 4 4 6
28 24 28 30 32 34 35 34 35 34 38 36 34 32 33 36 40 44 43 39 38 35 30 29 28 25 24 23 21 17 18 17 15 18 21 22 21 20 16 15 14 12 11 8
27 31 35 35 37 38 39 39 38 33 38 36 34 34 34 35 36 38 40 40 39 40 39 34 29 28 27 24 25 26 21 19 21 22 20 20 26 27 24 21 20 19 17 15
31 36 37 37 37 39 41 41 39 38 37 36 34 34 34 35 35 36 36 38 41 41 45 39 36 34 30 30 25 26 29 27 25 24 25 26 25 27 31 28 26 25 22 20
34 36 35 37 40 39 41 39 35 40 38 35 32 33 35 36 36 36 36 38 39 41 44 41 37 37 38 33 30 29 26 29 32 31 29 29 29 31 34 34 32 30 27 25
34 34 37 40 42 41 38 37 37 37 37 34 33 34 34 34 33 34 36 36 38 36 37 39 42 44 40 38 32 31 29 28 30 33 33 31 32 32 33 34 34 35 34 32
34 36 39 41 41 40 39 38 36 33 32 32 33 34 33 34 33 33 34 36 35 33 35 35 35 35 35 32 31 32 31 29 29 27 28 29 28 27 26 27 26 26 28 28
38 39 39 39 39 39 37 34 33 31 33 32 32 32 32 33 32 31 33 33 31 29 28 28 28 28 29 28 29 31 30 27 27 28 29 29 30 30 31 31 33 35 40 39
42 40 38 38 36 35 35 32 31 31 34 35 35 33 33 34 33 30 31 28 27 27 26 26 25 23 24 27 29 30 30 28 26 25 25 27 29 31 33 36 36 37 38 38
41 39 38 35 34 34 32 33 35 35 37 39 37 38 33 27 26 26 24 25 25 23 24 21 21 22 23 25 28 30 31 31 29 27 26 25 25 26 28 30 32 33 34 35
37 36 35 30 31 31 32 33 35 35 36 38 38 31 25 21 21 22 22 23 23 24 24 24 21 19 18 19 23 25 25 27 29 30 31 33 33 32 33 32 34 35 35 35
36 33 30 32 30 31 34 35 33 31 40 30 32 30 25 21 20 20 20 20 20 20 23 24 25 24 23 22 21 20 21 23 26 29 31 33 35 37 38 39 38 35 35 37

GFSNGP_850_spd_321.txt.gz
Wind_Speed
14 17 18 14 10 16 20 14 9 16 15 25 24 19 28 30 32 34 39 42 41 41 37 30 16 9 15 26 33 38 41 44 46 47 49 51 52 48 46 45 44 44 42 38
12 17 10 9 14 16 19 19 11 16 13 22 30 28 36 38 37 40 36 41 40 40 40 39 31 17 13 19 25 31 36 39 40 44 42 44 44 45 44 47 44 42 41 40
5 12 12 7 19 14 15 16 13 16 16 20 22 20 35 39 36 38 39 37 43 41 42 37 37 28 20 12 20 26 30 33 37 36 36 37 38 40 41 42 40 37 36 34
7 11 3 5 18 11 9 18 15 15 19 24 27 21 35 43 37 40 40 41 41 42 46 46 37 38 31 24 17 15 22 30 32 33 34 33 33 34 34 38 35 31 32 28
4 8 4 24 27 18 5 16 19 19 18 28 34 27 39 51 41 34 37 36 39 40 41 40 47 37 40 38 33 27 18 12 20 25 27 30 34 32 32 37 27 23 21 21
7 4 6 16 25 23 8 15 30 25 21 25 31 16 14 38 43 38 38 32 30 37 43 42 38 43 39 44 41 39 30 24 10 14 18 19 22 23 20 11 19 21 19 19
11 3 5 20 24 14 17 10 25 24 23 24 13 17 24 27 35 41 32 32 27 29 34 39 40 36 39 38 39 29 32 30 23 19 12 14 16 16 15 19 19 19 20 18
6 7 6 28 13 10 12 18 19 23 25 24 24 27 29 26 24 28 32 28 31 24 27 30 32 37 35 34 30 33 30 33 32 26 21 16 12 13 14 19 18 16 14 13
4 6 16 18 17 21 22 20 22 22 25 25 25 27 30 30 26 24 23 25 23 30 24 20 21 26 31 30 23 25 28 29 32 31 28 24 19 15 13 16 13 11 11 11
5 13 15 19 20 22 22 22 23 23 22 24 25 26 29 30 29 27 24 22 19 23 26 31 26 13 17 19 19 21 22 23 25 26 25 23 21 19 23 20 15 12 10 12
4 11 12 18 19 20 21 23 27 28 24 24 25 26 25 27 27 26 24 24 21 16 18 22 22 16 8 11 12 16 19 16 15 16 18 20 20 21 23 23 20 18 13 12
4 13 8 17 23 24 25 25 24 26 29 28 25 25 25 25 25 24 24 23 24 21 21 21 19 19 11 6 10 11 11 14 13 9 12 14 15 16 17 16 17 17 13 12
7 14 15 17 19 22 23 27 26 27 27 30 26 23 24 25 24 27 25 23 21 22 22 21 20 18 16 11 6 9 10 8 8 7 6 8 8 8 8 9 12 13 14 16
15 15 18 20 25 26 28 29 30 29 28 26 30 27 26 25 26 25 25 25 25 24 23 22 22 19 19 16 11 8 8 9 8 6 4 4 3 4 6 7 7 10 10 11
16 20 25 30 30 28 28 32 34 34 35 34 31 29 31 28 26 26 26 27 27 29 28 23 24 23 19 19 18 14 10 8 8 10 9 7 5 2 1 2 3 6 7 6
24 26 26 25 27 30 32 34 35 36 36 37 35 32 32 30 28 26 26 27 29 33 32 31 30 26 22 20 20 20 18 15 11 9 13 14 13 11 8 6 3 1 2 4
25 25 27 28 30 33 35 36 36 37 37 35 37 29 36 31 30 30 27 25 25 28 31 31 35 34 28 23 21 21 21 21 18 17 13 12 17 19 17 14 11 9 8 7
27 25 25 26 31 35 39 39 39 36 36 36 28 34 30 29 30 30 29 27 27 27 27 28 29 32 34 32 28 25 23 23 22 22 21 19 17 16 21 23 21 18 15 13
28 30 29 28 31 37 39 40 39 36 35 32 31 32 30 30 30 30 30 31 32 31 29 26 29 33 34 35 34 31 28 27 25 24 25 25 24 22 21 21 25 27 24 20
31 31 29 30 34 37 39 37 35 35 30 28 30 31 32 31 31 33 31 30 32 34 31 29 29 27 28 28 36 37 35 31 30 28 26 28 30 30 27 26 25 25 28 29
28 27 29 36 38 37 35 33 31 32 30 28 27 31 33 34 33 33 32 32 31 27 28 29 29 27 25 27 30 35 39 37 35 33 30 28 29 32 33 33 32 29 28 31
26 29 36 39 38 37 33 29 29 28 26 26 28 29 31 31 29 30 30 32 33 29 27 26 25 24 24 26 26 29 31 33 34 34 32 30 29 30 30 31 32 32 33 31
29 35 38 38 37 35 31 28 25 25 26 26 28 30 31 32 32 32 35 27 24 25 25 24 24 23 22 24 25 25 25 27 29 30 30 29 29 28 24 23 23 22 21 21
35 39 38 34 30 29 28 27 26 26 26 25 25 31 29 32 33 24 23 24 25 25 24 25 25 24 22 24 22 22 22 24 27 30 30 29 29 27 27 27 28 28 29 30
40 37 31 29 28 28 26 26 27 27 27 28 26 30 25 24 24 25 23 24 23 22 23 23 22 21 21 20 19 20 22 24 25 27 29 29 27 24 23 23 25 28 30 33
32 30 29 25 25 26 27 28 30 28 28 38 28 26 24 23 23 23 23 23 22 20 21 20 19 19 20 19 17 16 16 19 22 24 27 28 28 27 27 27 28 29 29 29
27 26 24 26 22 24 28 30 25 36 26 25 27 23 22 22 21 21 21 21 20 19 18 17 17 14 17 19 19 18 17 15 14 15 16 19 21 23 25 27 29 31 33 34

GFSNGP_850_spd_324.txt.gz
Wind_Speed
17 18 14 15 13 16 18 15 10 14 14 23 22 19 32 34 46 42 42 44 46 45 45 41 30 9 12 16 24 30 35 38 35 36 37 42 43 44 41 41 39 38 34 37
18 14 15 16 19 15 18 17 14 14 13 22 31 26 37 42 44 42 42 43 46 47 50 48 42 31 13 14 21 22 32 34 36 35 38 37 42 46 46 41 38 38 39 41
15 11 5 11 18 15 15 18 18 18 19 25 24 25 32 39 42 40 45 44 43 46 47 50 43 43 36 20 13 22 25 31 33 34 36 36 36 39 41 42 39 39 39 37
11 10 10 9 17 11 7 19 19 19 19 21 24 23 27 39 39 45 46 45 46 47 47 48 48 48 44 37 27 15 18 24 28 31 31 32 35 37 35 38 34 41 41 42
6 7 6 26 27 17 9 19 23 22 21 29 31 27 32 42 39 40 33 43 44 41 42 45 43 44 45 47 43 35 26 13 18 29 31 33 33 32 33 33 37 37 40 38
9 13 10 14 23 20 13 9 31 29 27 29 33 18 17 39 36 37 41 36 37 36 35 43 45 37 44 47 46 45 38 29 16 12 20 24 28 31 32 33 33 35 35 36
12 5 11 17 25 15 17 14 28 30 29 28 19 23 31 35 35 33 32 32 33 35 36 34 36 44 40 35 41 41 38 36 31 21 15 14 16 18 20 21 22 23 19 17
8 8 9 21 19 13 11 20 23 27 29 29 26 28 31 32 34 34 34 34 31 28 32 32 31 25 35 35 33 31 35 40 36 33 26 17 13 15 17 18 20 21 20 18
5 5 5 14 15 17 18 20 23 26 28 29 30 28 29 29 28 30 29 30 32 30 30 33 28 27 21 29 31 28 27 31 33 35 32 29 22 17 16 15 18 17 18 19
3 9 12 11 18 19 20 20 24 25 27 28 29 30 28 28 29 28 28 28 27 28 28 27 29 28 25 24 22 21 26 28 22 23 29 31 29 27 25 18 12 8 10 14
3 7 13 12 18 21 22 24 25 26 28 30 30 31 29 29 28 26 26 26 24 24 24 24 24 22 21 18 18 21 22 19 20 17 22 21 22 25 26 27 21 14 6 8
5 11 12 17 21 22 26 28 28 28 30 30 30 30 30 30 29 29 27 26 24 22 22 22 20 21 22 23 21 18 16 16 17 15 14 13 14 17 17 18 18 19 15 13
11 15 17 19 21 24 27 29 29 31 31 31 31 31 31 31 29 31 31 28 25 23 22 20 21 21 18 19 19 18 17 13 9 11 10 9 9 10 10 11 13 14 13 12
11 15 19 20 25 27 27 29 31 32 31 31 30 31 31 31 31 29 29 29 28 27 25 24 22 19 18 18 17 16 14 12 10 7 6 7 7 6 4 4 5 8 10 12
12 18 22 26 28 29 29 31 33 33 33 33 32 31 29 29 30 29 29 27 27 27 27 25 24 24 20 18 18 17 15 12 11 9 7 5 3 2 1 2 2 3 4 4
18 22 26 28 30 30 31 33 34 36 35 35 33 31 29 27 26 30 27 25 25 27 27 27 26 24 22 20 18 18 17 17 16 11 10 8 8 7 6 4 3 3 4 4
23 27 29 30 31 31 32 33 35 36 37 34 32 29 27 25 26 25 25 24 24 24 25 26 27 24 22 21 20 19 18 17 17 15 12 11 10 10 11 11 10 10 8 7
25 28 29 28 31 33 34 36 36 36 34 33 30 26 24 24 26 25 24 24 25 26 25 25 25 24 24 22 22 21 21 20 18 17 15 14 14 12 12 13 16 18 18 15
26 27 28 29 29 32 35 37 36 34 32 27 26 28 28 26 25 26 25 26 27 26 24 21 21 23 23 22 22 21 23 23 23 22 20 19 18 18 16 16 18 19 23 24
26 27 28 29 30 34 36 35 34 32 27 25 26 27 27 30 28 28 26 27 26 27 25 23 22 21 21 22 23 22 23 25 27 27 25 22 22 20 19 20 21 23 23 21
27 27 29 31 34 34 34 33 31 27 26 24 23 26 29 28 28 28 25 27 24 21 21 22 22 21 20 20 21 21 22 24 27 31 31 28 27 25 23 23 25 30 30 28
26 29 31 33 33 33 31 28 24 24 24 25 27 28 28 26 26 27 24 26 26 22 20 20 19 19 18 20 19 21 22 24 27 28 31 31 29 28 30 31 30 29 30 32
28 30 32 32 31 30 26 23 22 22 23 24 25 25 25 25 27 24 26 22 21 22 21 20 21 23 24 22 21 21 23 24 26 29 30 30 29 28 29 29 28 27 25 26
31 31 30 29 26 23 22 21 21 22 22 23 21 23 27 26 23 19 21 24 22 23 24 23 22 21 22 21 20 20 22 22 23 24 27 26 26 27 26 27 26 26 28 26
31 29 26 24 21 20 21 21 22 22 22 24 24 20 20 18 21 23 22 22 23 24 23 22 20 20 18 17 18 20 20 21 22 21 22 24 24 27 28 26 26 24 24 24
27 24 21 18 18 19 21 22 23 23 23 22 20 18 18 17 18 19 19 20 20 20 19 17 15 14 17 15 15 17 18 19 18 18 20 20 22 23 25 26 26 25 25 25
20 17 17 18 18 19 20 22 21 20 18 18 18 17 18 18 18 18 18 18 19 18 15 9 8 9 10 11 12 13 14 14 14 14 13 14 14 16 17 18 22 24 25 26

GFSNGP_850_spd_330.txt.gz
Wind_Speed
15 13 13 12 15 21 19 12 9 12 16 18 17 16 26 31 39 44 45 48 51 50 56 58 51 51 44 49 30 15 23 26 37 41 50 54 57 55 47 44 45 47 48 45
9 15 11 22 17 20 18 14 11 14 12 17 24 20 28 32 34 37 42 46 50 49 50 57 50 55 55 47 47 32 1 15 15 38 42 55 48 56 51 45 45 43 48 46
7 5 3 18 16 17 13 13 11 12 9 17 17 19 22 29 32 33 37 39 46 51 49 56 51 54 51 48 50 47 30 10 4 25 36 40 35 43 50 51 45 48 48 49
7 7 11 7 13 8 10 14 13 9 8 12 20 26 20 28 27 30 36 34 40 47 49 49 52 49 49 52 49 53 47 33 10 12 22 33 41 35 45 50 48 48 48 48
5 4 5 15 17 16 6 12 17 14 13 15 21 22 21 25 29 27 29 33 32 36 41 46 45 46 50 52 51 51 56 48 34 18 6 12 29 30 30 47 49 46 49 47
6 5 5 9 16 22 5 1 25 25 20 20 23 11 12 28 27 30 29 32 31 34 34 38 43 41 55 56 53 56 49 51 44 30 20 11 15 28 33 32 41 44 44 46
8 5 2 12 18 19 13 10 26 27 25 24 15 20 29 29 27 26 28 31 31 29 33 32 35 44 46 55 53 46 42 40 47 43 33 22 10 20 27 33 42 43 44 43
6 6 3 17 11 9 11 18 21 25 27 26 27 28 30 33 33 28 27 28 29 30 33 33 34 33 37 42 40 41 44 41 43 45 45 34 17 16 10 19 31 36 38 40
3 5 6 11 8 14 17 20 21 24 25 26 28 29 31 31 32 32 30 27 27 26 31 31 28 30 31 33 34 37 35 43 40 38 40 44 38 33 22 13 9 17 24 33
9 3 7 10 11 16 19 21 24 25 26 27 29 31 30 30 31 32 31 29 25 30 28 28 28 27 27 26 32 35 35 36 34 35 42 34 41 39 39 33 23 13 7 10
11 8 12 12 17 19 20 23 24 25 27 28 30 30 30 31 31 31 30 30 28 26 25 25 26 26 26 25 24 25 25 22 31 31 25 35 29 34 36 38 34 30 17 9
9 17 14 17 18 20 22 25 26 27 29 30 29 31 32 31 32 32 31 29 27 25 24 25 24 24 23 23 22 22 23 23 22 27 28 25 26 27 26 28 31 36 30 26
17 14 14 17 20 22 25 27 28 28 28 30 30 31 30 32 30 32 29 28 26 27 27 25 23 20 20 20 21 21 22 19 18 14 20 21 18 23 24 21 25 27 29 33
21 12 15 15 21 25 27 28 28 28 27 28 31 31 31 31 32 28 26 25 25 26 25 24 22 21 19 21 21 19 20 20 17 20 12 13 13 11 13 18 16 21 19 24
17 13 13 19 23 27 29 30 29 28 28 28 29 31 31 32 30 26 25 24 23 23 23 25 25 23 21 21 18 19 18 19 18 19 17 12 12 12 7 9 12 14 14 16
17 15 18 22 27 29 28 30 29 29 29 28 28 29 31 27 23 24 24 24 26 27 25 24 24 23 23 22 21 19 19 18 15 16 18 15 12 12 10 13 6 5 7 10
16 21 24 25 25 27 29 28 29 30 31 29 28 26 24 21 25 24 22 23 26 26 27 25 23 21 19 17 20 20 20 18 16 15 14 15 12 12 11 13 9 5 6 5
17 20 20 23 26 27 27 28 30 31 30 30 28 24 19 22 20 24 30 28 25 25 21 21 21 24 25 19 20 19 18 17 16 17 18 17 15 13 13 14 12 7 6 6
18 20 21 22 24 26 28 30 30 30 30 28 26 26 22 21 25 22 23 23 24 24 25 22 21 20 20 20 20 20 18 17 17 16 17 18 18 16 15 15 15 12 10 11
18 19 20 23 23 26 29 29 29 28 26 26 26 23 29 30 27 26 21 19 18 21 18 19 20 17 17 16 16 18 16 17 18 18 19 18 19 21 21 18 16 18 16 14
18 20 22 24 26 27 27 25 24 23 22 23 26 30 29 28 26 27 23 21 17 17 21 22 19 21 20 16 20 15 17 18 16 17 17 18 18 19 21 22 23 21 19 22
18 20 22 26 26 25 22 21 19 21 23 24 26 25 27 25 24 22 20 20 26 28 29 26 21 22 26 25 20 17 19 20 18 18 17 18 19 20 23 24 25 24 25 27
18 19 23 24 21 20 18 17 19 20 20 21 22 22 22 23 22 24 26 26 26 28 24 20 21 21 20 17 16 15 15 17 17 16 18 19 20 21 22 22 23 23 22 22
17 20 20 17 16 16 17 18 18 17 17 17 18 19 21 23 21 21 22 23 25 26 22 22 23 17 15 15 9 13 14 12 12 13 13 14 15 16 18 17 18 19 19 19
17 17 13 13 15 15 15 16 16 15 16 16 16 17 18 18 19 21 22 23 24 23 23 24 25 21 19 17 15 14 12 6 8 9 10 11 12 13 12 13 12 13 15 15
15 10 10 11 11 12 13 14 13 13 15 14 15 16 18 17 19 20 20 22 23 24 24 25 28 26 26 26 24 22 21 19 18 16 15 15 15 16 17 15 14 12 12 12
10 9 9 9 8 10 11 10 11 12 12 13 14 14 16 17 18 19 21 21 21 24 24 26 26 29 26 26 26 25 24 23 22 21 20 19 18 18 18 17 17 16 16 15

GFSNGP_850_spd_336.txt.gz
Wind_Speed
6 9 5 1 8 11 10 3 4 6 3 8 10 11 23 28 31 33 36 38 39 42 42 39 43 47 51 50 50 47 43 38 29 26 17 16 21 21 50 50 54 53 54 54
7 3 4 7 7 9 7 3 3 4 6 7 20 22 25 32 35 34 38 41 40 41 42 45 47 47 54 53 50 50 49 47 41 28 25 20 19 28 24 48 51 55 57 61
2 5 3 5 1 2 5 1 3 3 7 9 11 21 27 32 33 36 39 41 41 38 36 37 39 41 47 51 50 47 49 49 48 39 32 24 20 25 30 25 53 55 54 65
4 4 2 4 3 7 7 6 4 3 6 13 17 21 24 29 32 35 36 39 40 41 34 40 39 39 41 44 48 49 47 48 48 48 42 30 20 24 27 33 28 48 57 61
1 2 3 1 3 5 5 4 4 3 9 15 20 16 20 29 31 32 32 33 36 33 34 40 37 36 38 41 42 48 48 47 47 45 45 39 23 16 27 25 33 52 34 43
2 1 3 5 3 3 8 1 7 7 9 13 17 9 5 31 31 30 30 32 31 35 35 34 34 33 35 34 40 42 46 45 45 44 42 38 32 14 12 24 24 18 36 40
2 2 6 4 1 4 2 5 11 12 13 13 5 18 27 27 28 27 30 27 34 31 32 31 30 33 33 33 34 35 39 41 42 43 40 47 40 25 7 4 16 24 28 30
2 3 4 3 1 5 8 10 9 12 14 16 22 23 24 23 23 26 26 31 31 29 28 28 27 29 31 32 30 30 34 37 40 39 37 38 43 39 25 8 4 14 20 22
5 5 4 6 5 5 4 4 12 9 16 21 22 23 22 20 24 24 25 29 29 27 27 27 28 26 29 32 26 29 32 33 35 38 36 35 37 42 40 30 22 15 5 6
4 5 6 15 7 9 1 7 11 12 17 17 20 21 18 23 22 24 25 27 26 26 25 26 27 26 25 24 25 27 29 30 29 33 40 37 33 36 37 36 33 30 26 22
4 11 11 5 6 2 7 8 13 16 16 18 19 18 19 22 23 25 25 27 24 24 24 27 25 24 23 23 23 24 25 29 28 27 31 36 33 27 30 34 33 33 32 34
4 13 10 8 3 3 9 11 13 18 18 20 18 17 22 22 22 22 28 25 26 24 29 29 26 26 25 22 21 23 25 25 26 26 26 29 32 28 21 26 30 28 27 28
13 11 4 5 4 9 12 15 15 17 20 16 18 22 20 20 22 27 25 26 27 27 28 29 27 25 22 21 21 21 23 24 25 25 26 25 28 30 29 22 21 28 31 26
6 2 6 8 8 11 15 14 18 16 12 19 21 20 20 20 25 23 26 26 27 28 23 23 21 21 20 21 22 19 20 21 23 23 21 21 24 22 25 29 20 20 22 27
5 5 7 10 14 15 16 15 13 15 19 19 19 19 21 23 22 21 25 23 24 22 21 21 22 24 22 21 20 20 20 20 20 20 20 19 19 18 19 21 24 21 14 17
4 10 11 11 12 11 10 13 14 16 18 20 18 19 20 22 23 23 21 21 23 23 22 22 19 21 22 21 20 19 20 21 20 19 19 19 18 17 19 19 19 22 22 14
3 7 6 6 6 8 10 11 16 18 16 16 18 20 22 24 22 21 20 20 18 16 12 18 23 24 25 24 22 20 19 18 18 18 19 18 17 16 15 16 16 15 17 20
8 6 4 6 7 10 13 17 14 12 13 17 19 21 22 20 21 22 21 18 13 14 21 25 27 28 27 26 24 19 16 16 15 16 16 17 17 15 15 15 16 15 15 13
7 5 4 7 9 13 17 14 11 12 14 16 18 18 18 20 21 20 17 17 23 27 27 24 24 23 24 23 22 18 17 16 15 14 15 15 16 16 16 17 17 17 16 16
6 4 5 7 12 17 13 9 11 13 14 15 16 18 19 17 18 19 21 21 23 22 22 26 25 23 17 21 21 18 14 10 13 14 14 12 14 15 16 16 17 17 17 16
5 4 6 8 12 11 8 9 11 12 12 13 15 15 14 15 16 18 22 25 24 26 26 25 25 23 19 20 20 16 11 9 9 11 11 12 12 13 13 15 16 16 16 15
5 5 5 8 9 6 7 9 10 10 9 11 12 12 12 14 16 16 18 23 22 25 27 28 28 25 20 19 20 18 16 13 10 8 8 9 11 11 11 11 12 12 13 13
5 5 6 7 6 5 6 7 9 6 6 7 10 12 13 12 14 16 17 20 18 20 24 25 24 24 23 22 21 21 19 17 16 16 15 15 14 13 13 12 11 10 10 10
7 7 6 5 5 6 4 4 5 3 3 5 8 9 10 11 13 13 12 15 17 18 21 22 23 23 24 23 23 23 23 22 21 19 18 16 16 16 15 14 15 16 15 13
9 8 7 6 7 5 3 3 2 5 4 5 6 8 8 9 12 12 12 13 15 17 18 20 21 22 24 24 24 24 24 23 22 21 20 19 18 18 17 16 16 16 16 17
12 10 8 8 7 4 3 3 7 7 6 4 3 4 5 6 8 9 11 12 12 14 16 17 19 20 21 22 22 22 22 22 22 22 22 21 20 19 19 18 17 17 17 17
14 12 11 9 7 6 5 8 9 9 7 4 3 2 3 5 6 8 9 10 11 12 14 15 17 18 19 20 20 20 21 21 21 21 22 22 22 22 22 21 20 20 19 19